Wetterdaten: Freitag, 31.03.2017
Datum Zeit Temp. Aussen Temp. o. S. +5cm Feuchte Auss BlattFeu 1 Luftdruck Regen Sonnenschein Regendauer Solar Windben Empfang
31.03.2017 00:00 14,8 C 14,4 C 11,1 C 71 % 0 lf 1019,0 hPa 0,0 l/m 0 min 0 min 0 W/m 8,4 km/h (2 Bft) 97,87 %
31.03.2017 00:02 14,8 C 14,4 C 11,1 C 71 % 0 lf 1018,9 hPa 0,0 l/m 0 min 0 min 0 W/m 6,3 km/h (2 Bft) 90,00 %
31.03.2017 00:04 14,7 C 14,4 C 11,1 C 71 % 0 lf 1018,9 hPa 0,0 l/m 0 min 0 min 0 W/m 6,3 km/h (2 Bft) 95,74 %
31.03.2017 00:06 14,7 C 14,4 C 11,1 C 71 % 0 lf 1018,9 hPa 0,0 l/m 0 min 0 min 0 W/m 6,3 km/h (2 Bft) 95,74 %
31.03.2017 00:10 14,7 C 14,4 C 10,6 C 72 % 0 lf 1018,9 hPa 0,0 l/m 0 min 0 min 0 W/m 6,3 km/h (2 Bft) 94,29 %
31.03.2017 00:12 14,6 C 13,9 C 10,6 C 72 % 0 lf 1018,9 hPa 0,0 l/m 0 min 0 min 0 W/m 8,4 km/h (2 Bft) 95,65 %
31.03.2017 00:14 14,6 C 13,9 C 10,6 C 72 % 0 lf 1018,8 hPa 0,0 l/m 0 min 0 min 0 W/m 6,3 km/h (2 Bft) 97,87 %
31.03.2017 00:16 14,6 C 13,9 C 10,6 C 72 % 0 lf 1018,8 hPa 0,0 l/m 0 min 0 min 0 W/m 8,4 km/h (2 Bft) 95,74 %
31.03.2017 00:18 14,6 C 13,9 C 10,6 C 72 % 0 lf 1018,8 hPa 0,0 l/m 0 min 0 min 0 W/m 8,4 km/h (2 Bft) 93,62 %
31.03.2017 00:20 14,5 C 13,9 C 10,6 C 72 % 0 lf 1018,8 hPa 0,0 l/m 0 min 0 min 0 W/m 6,3 km/h (2 Bft) 95,74 %
31.03.2017 00:22 14,5 C 13,9 C 10,6 C 72 % 0 lf 1018,8 hPa 0,0 l/m 0 min 0 min 0 W/m 6,3 km/h (2 Bft) 97,87 %
31.03.2017 00:24 14,4 C 13,9 C 10,6 C 72 % 0 lf 1018,8 hPa 0,0 l/m 0 min 0 min 0 W/m 8,4 km/h (2 Bft) 97,83 %
31.03.2017 00:26 14,4 C 13,9 C 10,6 C 72 % 0 lf 1018,7 hPa 0,0 l/m 0 min 0 min 0 W/m 6,3 km/h (2 Bft) 91,49 %
31.03.2017 00:28 14,4 C 13,9 C 10,6 C 72 % 0 lf 1018,8 hPa 0,0 l/m 0 min 0 min 0 W/m 6,3 km/h (2 Bft) 95,74 %
31.03.2017 00:30 14,3 C 13,9 C 10,6 C 72 % 0 lf 1018,8 hPa 0,0 l/m 0 min 0 min 0 W/m 8,4 km/h (2 Bft) 97,87 %
31.03.2017 00:32 14,3 C 13,9 C 10,6 C 72 % 0 lf 1018,7 hPa 0,0 l/m 0 min 0 min 0 W/m 6,3 km/h (2 Bft) 97,87 %
31.03.2017 00:34 14,3 C 13,3 C 10,6 C 72 % 0 lf 1018,7 hPa 0,0 l/m 0 min 0 min 0 W/m 8,4 km/h (2 Bft) 91,49 %
31.03.2017 00:36 14,2 C 13,3 C 10,6 C 73 % 0 lf 1018,7 hPa 0,0 l/m 0 min 0 min 0 W/m 8,4 km/h (2 Bft) 91,30 %
31.03.2017 00:38 14,2 C 13,9 C 10,6 C 73 % 0 lf 1018,7 hPa 0,0 l/m 0 min 0 min 0 W/m 8,4 km/h (2 Bft) 95,74 %
31.03.2017 00:40 14,2 C 13,3 C 10,6 C 73 % 0 lf 1018,7 hPa 0,0 l/m 0 min 0 min 0 W/m 8,4 km/h (2 Bft) 95,74 %
31.03.2017 00:42 14,2 C 13,3 C 10,6 C 73 % 0 lf 1018,7 hPa 0,0 l/m 0 min 0 min 0 W/m 8,4 km/h (2 Bft) 95,74 %
31.03.2017 00:44 14,2 C 13,3 C 10,6 C 73 % 0 lf 1018,7 hPa 0,0 l/m 0 min 0 min 0 W/m 8,4 km/h (2 Bft) 95,74 %
31.03.2017 00:46 14,2 C 13,3 C 10,6 C 73 % 0 lf 1018,7 hPa 0,0 l/m 0 min 0 min 0 W/m 8,4 km/h (2 Bft) 93,48 %
31.03.2017 00:48 14,1 C 13,3 C 10,6 C 73 % 0 lf 1018,7 hPa 0,0 l/m 0 min 0 min 0 W/m 8,4 km/h (2 Bft) 93,62 %
31.03.2017 00:50 14,1 C 13,3 C 10,0 C 73 % 0 lf 1018,7 hPa 0,0 l/m 0 min 0 min 0 W/m 8,4 km/h (2 Bft) 93,62 %
31.03.2017 00:52 14,0 C 13,3 C 10,0 C 73 % 0 lf 1018,7 hPa 0,0 l/m 0 min 0 min 0 W/m 8,4 km/h (2 Bft) 95,74 %
31.03.2017 00:54 14,0 C 13,3 C 10,0 C 74 % 0 lf 1018,7 hPa 0,0 l/m 0 min 0 min 0 W/m 10,5 km/h (2 Bft) 97,87 %
31.03.2017 00:56 13,9 C 13,3 C 10,6 C 74 % 0 lf 1018,5 hPa 0,0 l/m 0 min 0 min 0 W/m 6,3 km/h (2 Bft) 97,87 %
31.03.2017 00:58 13,9 C 13,3 C 10,6 C 74 % 0 lf 1018,5 hPa 0,0 l/m 0 min 0 min 0 W/m 8,4 km/h (2 Bft) 95,74 %
31.03.2017 01:00 13,9 C 13,3 C 10,6 C 74 % 0 lf 1018,5 hPa 0,0 l/m 0 min 0 min 0 W/m 4,2 km/h (1 Bft) 95,65 %
31.03.2017 01:02 13,8 C 13,3 C 10,6 C 74 % 0 lf 1018,5 hPa 0,0 l/m 0 min 0 min 0 W/m 8,4 km/h (2 Bft) 91,49 %
31.03.2017 01:04 13,8 C 13,3 C 10,6 C 74 % 0 lf 1018,5 hPa 0,0 l/m 0 min 0 min 0 W/m 8,4 km/h (2 Bft) 97,87 %
31.03.2017 01:06 13,8 C 13,3 C 10,6 C 74 % 0 lf 1018,4 hPa 0,0 l/m 0 min 0 min 0 W/m 8,4 km/h (2 Bft) 95,74 %
31.03.2017 01:08 13,7 C 13,3 C 10,6 C 74 % 0 lf 1018,4 hPa 0,0 l/m 0 min 0 min 0 W/m 8,4 km/h (2 Bft) 93,62 %
31.03.2017 01:10 13,7 C 13,3 C 10,0 C 75 % 0 lf 1018,4 hPa 0,0 l/m 0 min 0 min 0 W/m 6,3 km/h (2 Bft) 97,83 %
31.03.2017 01:12 13,7 C 13,3 C 10,0 C 75 % 0 lf 1018,4 hPa 0,0 l/m 0 min 0 min 0 W/m 6,3 km/h (2 Bft) 97,87 %
31.03.2017 01:14 13,7 C 13,3 C 10,0 C 75 % 0 lf 1018,3 hPa 0,0 l/m 0 min 0 min 0 W/m 6,3 km/h (2 Bft) 97,87 %
31.03.2017 01:16 13,7 C 13,3 C 10,0 C 75 % 0 lf 1018,4 hPa 0,0 l/m 0 min 0 min 0 W/m 6,3 km/h (2 Bft) 97,87 %
31.03.2017 01:18 13,6 C 13,3 C 10,0 C 75 % 0 lf 1018,3 hPa 0,0 l/m 0 min 0 min 0 W/m 8,4 km/h (2 Bft) 95,74 %
31.03.2017 01:20 13,6 C 12,8 C 10,0 C 75 % 0 lf 1018,2 hPa 0,0 l/m 0 min 0 min 0 W/m 8,4 km/h (2 Bft) 97,87 %
31.03.2017 01:22 13,6 C 12,8 C 10,0 C 75 % 0 lf 1018,1 hPa 0,0 l/m 0 min 0 min 0 W/m 6,3 km/h (2 Bft) 97,83 %
31.03.2017 01:24 13,6 C 12,8 C 10,0 C 75 % 0 lf 1018,1 hPa 0,0 l/m 0 min 0 min 0 W/m 8,4 km/h (2 Bft) 93,62 %
31.03.2017 01:26 13,5 C 12,8 C 9,4 C 75 % 0 lf 1018,1 hPa 0,0 l/m 0 min 0 min 0 W/m 8,4 km/h (2 Bft) 95,74 %
31.03.2017 01:28 13,5 C 12,8 C 9,4 C 75 % 0 lf 1018,0 hPa 0,0 l/m 0 min 0 min 0 W/m 8,4 km/h (2 Bft) 97,87 %
31.03.2017 01:30 13,4 C 12,8 C 9,4 C 75 % 0 lf 1018,0 hPa 0,0 l/m 0 min 0 min 0 W/m 8,4 km/h (2 Bft) 97,87 %
31.03.2017 01:32 13,4 C 12,8 C 9,4 C 75 % 0 lf 1018,0 hPa 0,0 l/m 0 min 0 min 0 W/m 6,3 km/h (2 Bft) 93,62 %
31.03.2017 01:34 13,4 C 12,8 C 9,4 C 75 % 0 lf 1018,0 hPa 0,0 l/m 0 min 0 min 0 W/m 8,4 km/h (2 Bft) 97,83 %
31.03.2017 01:36 13,4 C 12,2 C 9,4 C 75 % 0 lf 1017,9 hPa 0,0 l/m 0 min 0 min 0 W/m 8,4 km/h (2 Bft) 97,87 %
31.03.2017 01:38 13,3 C 12,2 C 9,4 C 75 % 0 lf 1017,9 hPa 0,0 l/m 0 min 0 min 0 W/m 10,5 km/h (2 Bft) 95,74 %
31.03.2017 01:40 13,3 C 12,2 C 9,4 C 75 % 0 lf 1017,9 hPa 0,0 l/m 0 min 0 min 0 W/m 8,4 km/h (2 Bft) 97,87 %
31.03.2017 01:42 13,3 C 12,2 C 9,4 C 75 % 0 lf 1017,9 hPa 0,0 l/m 0 min 0 min 0 W/m 8,4 km/h (2 Bft) 93,62 %
31.03.2017 01:44 13,2 C 12,2 C 9,4 C 75 % 0 lf 1017,9 hPa 0,0 l/m 0 min 0 min 0 W/m 8,4 km/h (2 Bft) 95,74 %
31.03.2017 01:46 13,2 C 12,2 C 8,9 C 76 % 0 lf 1017,9 hPa 0,0 l/m 0 min 0 min 0 W/m 8,4 km/h (2 Bft) 97,83 %
31.03.2017 01:48 13,2 C 12,2 C 8,9 C 76 % 0 lf 1017,8 hPa 0,0 l/m 0 min 0 min 0 W/m 6,3 km/h (2 Bft) 95,74 %
31.03.2017 01:50 13,1 C 12,2 C 9,4 C 76 % 0 lf 1017,8 hPa 0,0 l/m 0 min 0 min 0 W/m 6,3 km/h (2 Bft) 95,74 %
31.03.2017 01:52 13,1 C 12,2 C 9,4 C 76 % 0 lf 1017,8 hPa 0,0 l/m 0 min 0 min 0 W/m 10,5 km/h (2 Bft) 97,87 %
31.03.2017 01:54 13,0 C 12,2 C 9,4 C 76 % 0 lf 1017,7 hPa 0,0 l/m 0 min 0 min 3 W/m 10,5 km/h (2 Bft) 97,87 %
31.03.2017 01:56 13,0 C 12,8 C 9,4 C 76 % 0 lf 1017,7 hPa 0,0 l/m 0 min 0 min 5 W/m 8,4 km/h (2 Bft) 97,87 %
31.03.2017 01:58 12,9 C 12,8 C 9,4 C 76 % 0 lf 1017,7 hPa 0,0 l/m 0 min 0 min 5 W/m 6,3 km/h (2 Bft) 93,48 %
31.03.2017 02:00 12,9 C 12,8 C 9,4 C 77 % 0 lf 1017,6 hPa 0,0 l/m 0 min 0 min 5 W/m 8,4 km/h (2 Bft) 93,62 %
31.03.2017 02:02 12,9 C 12,8 C 9,4 C 77 % 0 lf 1017,5 hPa 0,0 l/m 0 min 0 min 5 W/m 10,5 km/h (2 Bft) 97,87 %
31.03.2017 02:04 12,9 C 12,8 C 10,0 C 77 % 0 lf 1017,5 hPa 0,0 l/m 0 min 0 min 5 W/m 12,6 km/h (3 Bft) 97,87 %
31.03.2017 02:06 12,8 C 12,8 C 10,0 C 77 % 0 lf 1017,5 hPa 0,0 l/m 0 min 0 min 4 W/m 10,5 km/h (2 Bft) 95,74 %
31.03.2017 02:08 12,8 C 12,8 C 10,0 C 77 % 0 lf 1017,4 hPa 0,0 l/m 0 min 0 min 0 W/m 10,5 km/h (2 Bft) 97,87 %
31.03.2017 02:10 12,8 C 12,8 C 10,0 C 77 % 0 lf 1017,5 hPa 0,0 l/m 0 min 0 min 4 W/m 10,5 km/h (2 Bft) 100,00 %
31.03.2017 02:12 12,8 C 12,8 C 10,0 C 78 % 0 lf 1017,5 hPa 0,0 l/m 0 min 0 min 5 W/m 8,4 km/h (2 Bft) 95,74 %
31.03.2017 02:14 12,8 C 12,8 C 10,0 C 78 % 0 lf 1017,4 hPa 0,0 l/m 0 min 0 min 5 W/m 10,5 km/h (2 Bft) 100,00 %
31.03.2017 02:16 12,8 C 12,8 C 10,0 C 78 % 0 lf 1017,4 hPa 0,0 l/m 0 min 0 min 5 W/m 10,5 km/h (2 Bft) 97,87 %
31.03.2017 02:18 12,8 C 12,8 C 10,0 C 78 % 0 lf 1017,4 hPa 0,0 l/m 0 min 0 min 5 W/m 8,4 km/h (2 Bft) 97,87 %
31.03.2017 02:20 12,7 C 12,8 C 10,0 C 78 % 0 lf 1017,4 hPa 0,0 l/m 0 min 0 min 5 W/m 8,4 km/h (2 Bft) 95,65 %
31.03.2017 02:22 12,7 C 12,8 C 10,0 C 78 % 0 lf 1017,4 hPa 0,0 l/m 0 min 0 min 5 W/m 10,5 km/h (2 Bft) 93,62 %
31.03.2017 02:24 12,7 C 12,8 C 10,0 C 78 % 0 lf 1017,3 hPa 0,0 l/m 0 min 0 min 5 W/m 12,6 km/h (3 Bft) 95,74 %
31.03.2017 02:26 12,7 C 12,8 C 10,6 C 78 % 0 lf 1017,3 hPa 0,0 l/m 0 min 0 min 5 W/m 8,4 km/h (2 Bft) 95,74 %
31.03.2017 02:28 12,7 C 12,8 C 10,6 C 78 % 0 lf 1017,3 hPa 0,0 l/m 0 min 0 min 5 W/m 10,5 km/h (2 Bft) 97,87 %
31.03.2017 02:30 12,7 C 12,8 C 10,6 C 78 % 0 lf 1017,3 hPa 0,0 l/m 0 min 0 min 5 W/m 8,4 km/h (2 Bft) 95,74 %
31.03.2017 02:32 12,7 C 12,8 C 10,6 C 78 % 0 lf 1017,3 hPa 0,0 l/m 0 min 0 min 5 W/m 10,5 km/h (2 Bft) 91,30 %
31.03.2017 02:34 12,8 C 12,8 C 10,6 C 78 % 0 lf 1017,2 hPa 0,0 l/m 0 min 0 min 5 W/m 10,5 km/h (2 Bft) 95,74 %
31.03.2017 02:36 12,8 C 12,8 C 10,0 C 78 % 0 lf 1017,3 hPa 0,0 l/m 0 min 0 min 5 W/m 14,6 km/h (3 Bft) 95,74 %
31.03.2017 02:38 12,8 C 12,8 C 10,0 C 78 % 0 lf 1017,2 hPa 0,0 l/m 0 min 0 min 5 W/m 10,5 km/h (2 Bft) 95,74 %
31.03.2017 02:40 12,8 C 12,8 C 10,0 C 78 % 0 lf 1017,2 hPa 0,0 l/m 0 min 0 min 5 W/m 8,4 km/h (2 Bft) 95,74 %
31.03.2017 02:42 12,8 C 12,8 C 10,0 C 78 % 0 lf 1017,1 hPa 0,0 l/m 0 min 0 min 5 W/m 8,4 km/h (2 Bft) 91,49 %
31.03.2017 02:44 12,8 C 12,8 C 10,0 C 78 % 0 lf 1017,2 hPa 0,0 l/m 0 min 0 min 5 W/m 6,3 km/h (2 Bft) 93,48 %
31.03.2017 02:46 12,8 C 12,2 C 10,0 C 78 % 0 lf 1017,1 hPa 0,0 l/m 0 min 0 min 5 W/m 8,4 km/h (2 Bft) 95,74 %
31.03.2017 02:48 12,7 C 12,2 C 10,0 C 78 % 0 lf 1017,0 hPa 0,0 l/m 0 min 0 min 4 W/m 8,4 km/h (2 Bft) 95,74 %
31.03.2017 02:50 12,7 C 12,2 C 9,4 C 78 % 0 lf 1017,0 hPa 0,0 l/m 0 min 0 min 2 W/m 12,6 km/h (3 Bft) 93,62 %
31.03.2017 02:52 12,7 C 12,2 C 9,4 C 78 % 0 lf 1017,0 hPa 0,0 l/m 0 min 0 min 0 W/m 12,6 km/h (3 Bft) 93,62 %
31.03.2017 02:54 12,7 C 12,2 C 9,4 C 78 % 0 lf 1017,0 hPa 0,0 l/m 0 min 0 min 3 W/m 10,5 km/h (2 Bft) 95,74 %
31.03.2017 02:56 12,7 C 12,2 C 10,0 C 78 % 0 lf 1017,0 hPa 0,0 l/m 0 min 0 min 3 W/m 10,5 km/h (2 Bft) 93,48 %
31.03.2017 02:58 12,7 C 12,2 C 10,0 C 78 % 0 lf 1017,0 hPa 0,0 l/m 0 min 0 min 3 W/m 10,5 km/h (2 Bft) 93,62 %
31.03.2017 03:00 12,7 C 12,2 C 10,0 C 78 % 0 lf 1017,0 hPa 0,0 l/m 0 min 0 min 3 W/m 10,5 km/h (2 Bft) 89,36 %
31.03.2017 03:02 12,6 C 12,2 C 9,4 C 78 % 0 lf 1016,9 hPa 0,0 l/m 0 min 0 min 5 W/m 10,5 km/h (2 Bft) 93,62 %
31.03.2017 03:04 12,6 C 12,2 C 9,4 C 78 % 0 lf 1016,9 hPa 0,0 l/m 0 min 0 min 5 W/m 10,5 km/h (2 Bft) 91,49 %
31.03.2017 03:06 12,6 C 12,2 C 10,0 C 78 % 0 lf 1016,9 hPa 0,0 l/m 0 min 0 min 5 W/m 10,5 km/h (2 Bft) 95,74 %
31.03.2017 03:08 12,6 C 12,2 C 10,0 C 78 % 0 lf 1016,8 hPa 0,0 l/m 0 min 0 min 5 W/m 16,7 km/h (3 Bft) 93,48 %
31.03.2017 03:10 12,6 C 12,8 C 10,0 C 78 % 0 lf 1016,8 hPa 0,0 l/m 0 min 0 min 5 W/m 18,8 km/h (3 Bft) 97,87 %
31.03.2017 03:12 12,6 C 12,8 C 10,0 C 79 % 0 lf 1016,8 hPa 0,0 l/m 0 min 0 min 5 W/m 14,6 km/h (3 Bft) 95,74 %
31.03.2017 03:14 12,6 C 12,8 C 10,0 C 79 % 0 lf 1016,7 hPa 0,0 l/m 0 min 0 min 5 W/m 16,7 km/h (3 Bft) 100,00 %
31.03.2017 03:16 12,6 C 12,8 C 10,0 C 79 % 0 lf 1016,7 hPa 0,0 l/m 0 min 0 min 5 W/m 18,8 km/h (3 Bft) 93,62 %
31.03.2017 03:18 12,6 C 12,8 C 10,0 C 79 % 0 lf 1016,7 hPa 0,0 l/m 0 min 0 min 5 W/m 14,6 km/h (3 Bft) 97,87 %
31.03.2017 03:20 12,6 C 12,8 C 10,0 C 79 % 0 lf 1016,6 hPa 0,0 l/m 0 min 0 min 5 W/m 16,7 km/h (3 Bft) 97,83 %
31.03.2017 03:22 12,6 C 12,8 C 10,6 C 79 % 0 lf 1016,6 hPa 0,0 l/m 0 min 0 min 5 W/m 16,7 km/h (3 Bft) 95,74 %
31.03.2017 03:24 12,6 C 12,8 C 10,6 C 79 % 0 lf 1016,6 hPa 0,0 l/m 0 min 0 min 5 W/m 16,7 km/h (3 Bft) 97,87 %
31.03.2017 03:26 12,6 C 12,8 C 10,6 C 79 % 0 lf 1016,5 hPa 0,0 l/m 0 min 0 min 5 W/m 23,0 km/h (4 Bft) 93,62 %
31.03.2017 03:28 12,6 C 12,8 C 10,6 C 79 % 0 lf 1016,5 hPa 0,0 l/m 0 min 0 min 5 W/m 16,7 km/h (3 Bft) 95,74 %
31.03.2017 03:30 12,6 C 12,8 C 10,0 C 79 % 0 lf 1016,5 hPa 0,0 l/m 0 min 0 min 5 W/m 20,9 km/h (4 Bft) 97,87 %
31.03.2017 03:32 12,6 C 12,8 C 10,0 C 79 % 0 lf 1016,4 hPa 0,0 l/m 0 min 0 min 5 W/m 14,6 km/h (3 Bft) 97,83 %
31.03.2017 03:34 12,6 C 12,8 C 10,6 C 79 % 0 lf 1016,4 hPa 0,0 l/m 0 min 0 min 5 W/m 18,8 km/h (3 Bft) 95,74 %
31.03.2017 03:36 12,6 C 12,8 C 10,0 C 79 % 0 lf 1016,4 hPa 0,0 l/m 0 min 0 min 5 W/m 10,5 km/h (2 Bft) 97,87 %
31.03.2017 03:38 12,6 C 12,2 C 10,0 C 79 % 0 lf 1016,3 hPa 0,0 l/m 0 min 0 min 5 W/m 10,5 km/h (2 Bft) 97,87 %
31.03.2017 03:40 12,6 C 12,2 C 10,0 C 79 % 0 lf 1016,3 hPa 0,0 l/m 0 min 0 min 5 W/m 14,6 km/h (3 Bft) 100,00 %
31.03.2017 03:42 12,6 C 12,8 C 10,0 C 79 % 0 lf 1016,3 hPa 0,0 l/m 0 min 0 min 5 W/m 14,6 km/h (3 Bft) 100,00 %
31.03.2017 03:44 12,6 C 12,8 C 10,0 C 79 % 0 lf 1016,2 hPa 0,0 l/m 0 min 0 min 5 W/m 16,7 km/h (3 Bft) 100,00 %
31.03.2017 03:46 12,6 C 12,8 C 10,0 C 79 % 0 lf 1016,3 hPa 0,0 l/m 0 min 0 min 5 W/m 18,8 km/h (3 Bft) 100,00 %
31.03.2017 03:48 12,6 C 12,8 C 10,0 C 79 % 0 lf 1016,2 hPa 0,0 l/m 0 min 0 min 5 W/m 18,8 km/h (3 Bft) 100,00 %
31.03.2017 03:50 12,5 C 12,8 C 10,0 C 79 % 0 lf 1016,1 hPa 0,0 l/m 0 min 0 min 5 W/m 18,8 km/h (3 Bft) 100,00 %
31.03.2017 03:52 12,5 C 12,2 C 10,0 C 79 % 0 lf 1016,1 hPa 0,0 l/m 0 min 0 min 5 W/m 16,7 km/h (3 Bft) 100,00 %
31.03.2017 03:54 12,5 C 12,2 C 10,0 C 79 % 0 lf 1016,1 hPa 0,0 l/m 0 min 0 min 5 W/m 18,8 km/h (3 Bft) 100,00 %
31.03.2017 03:56 12,5 C 12,8 C 10,0 C 79 % 0 lf 1016,0 hPa 0,0 l/m 0 min 0 min 5 W/m 16,7 km/h (3 Bft) 100,00 %
31.03.2017 03:58 12,5 C 12,2 C 10,0 C 79 % 0 lf 1016,0 hPa 0,0 l/m 0 min 0 min 5 W/m 12,6 km/h (3 Bft) 93,62 %
31.03.2017 04:00 12,5 C 12,8 C 10,0 C 79 % 0 lf 1015,9 hPa 0,0 l/m 0 min 0 min 5 W/m 18,8 km/h (3 Bft) 100,00 %
31.03.2017 04:06 12,5 C 12,2 C 10,0 C 79 % 0 lf 1015,8 hPa 0,0 l/m 0 min 0 min 5 W/m 18,8 km/h (3 Bft) 91,30 %
31.03.2017 04:08 12,4 C 12,2 C 10,0 C 79 % 0 lf 1015,8 hPa 0,0 l/m 0 min 0 min 5 W/m 14,6 km/h (3 Bft) 97,87 %
31.03.2017 04:10 12,4 C 12,2 C 10,0 C 79 % 0 lf 1015,8 hPa 0,0 l/m 0 min 0 min 5 W/m 18,8 km/h (3 Bft) 95,74 %
31.03.2017 04:12 12,4 C 12,2 C 10,0 C 79 % 0 lf 1015,8 hPa 0,0 l/m 0 min 0 min 5 W/m 12,6 km/h (3 Bft) 97,87 %
31.03.2017 04:14 12,4 C 12,2 C 10,0 C 79 % 0 lf 1015,8 hPa 0,0 l/m 0 min 0 min 5 W/m 12,6 km/h (3 Bft) 100,00 %
31.03.2017 04:16 12,4 C 12,2 C 10,0 C 79 % 0 lf 1015,8 hPa 0,0 l/m 0 min 0 min 5 W/m 12,6 km/h (3 Bft) 95,74 %
31.03.2017 04:18 12,4 C 12,2 C 10,0 C 79 % 0 lf 1015,7 hPa 0,0 l/m 0 min 0 min 5 W/m 14,6 km/h (3 Bft) 100,00 %
31.03.2017 04:20 12,4 C 12,2 C 10,0 C 79 % 0 lf 1015,7 hPa 0,0 l/m 0 min 0 min 5 W/m 16,7 km/h (3 Bft) 97,87 %
31.03.2017 04:22 12,4 C 12,2 C 10,0 C 79 % 0 lf 1015,6 hPa 0,0 l/m 0 min 0 min 5 W/m 12,6 km/h (3 Bft) 95,74 %
31.03.2017 04:24 12,3 C 12,2 C 10,0 C 79 % 0 lf 1015,6 hPa 0,0 l/m 0 min 0 min 5 W/m 16,7 km/h (3 Bft) 97,87 %
31.03.2017 04:26 12,3 C 12,2 C 10,0 C 79 % 0 lf 1015,5 hPa 0,0 l/m 0 min 0 min 5 W/m 16,7 km/h (3 Bft) 95,74 %
31.03.2017 04:28 12,3 C 12,2 C 10,0 C 79 % 0 lf 1015,6 hPa 0,0 l/m 0 min 0 min 5 W/m 16,7 km/h (3 Bft) 95,74 %
31.03.2017 04:30 12,3 C 12,2 C 10,0 C 80 % 0 lf 1015,5 hPa 0,0 l/m 0 min 0 min 5 W/m 16,7 km/h (3 Bft) 97,83 %
31.03.2017 04:32 12,3 C 12,2 C 10,0 C 80 % 0 lf 1015,5 hPa 0,0 l/m 0 min 0 min 5 W/m 18,8 km/h (3 Bft) 93,62 %
31.03.2017 04:34 12,2 C 12,2 C 10,0 C 80 % 0 lf 1015,5 hPa 0,0 l/m 0 min 0 min 5 W/m 14,6 km/h (3 Bft) 97,87 %
31.03.2017 04:36 12,2 C 12,2 C 10,0 C 80 % 0 lf 1015,5 hPa 0,0 l/m 0 min 0 min 5 W/m 16,7 km/h (3 Bft) 97,87 %
31.03.2017 04:38 12,2 C 12,2 C 10,0 C 80 % 0 lf 1015,5 hPa 0,0 l/m 0 min 0 min 5 W/m 16,7 km/h (3 Bft) 95,74 %
31.03.2017 04:40 12,2 C 12,2 C 10,0 C 80 % 0 lf 1015,4 hPa 0,0 l/m 0 min 0 min 5 W/m 16,7 km/h (3 Bft) 97,87 %
31.03.2017 04:42 12,2 C 12,2 C 10,0 C 80 % 0 lf 1015,4 hPa 0,0 l/m 0 min 0 min 5 W/m 18,8 km/h (3 Bft) 97,83 %
31.03.2017 04:44 12,2 C 12,2 C 10,0 C 80 % 0 lf 1015,3 hPa 0,0 l/m 0 min 0 min 5 W/m 25,1 km/h (4 Bft) 100,00 %
31.03.2017 04:46 12,2 C 12,2 C 10,0 C 80 % 0 lf 1015,4 hPa 0,0 l/m 0 min 0 min 5 W/m 23,0 km/h (4 Bft) 95,74 %
31.03.2017 04:48 12,1 C 12,2 C 10,0 C 81 % 0 lf 1015,3 hPa 0,0 l/m 0 min 0 min 5 W/m 20,9 km/h (4 Bft) 95,74 %
31.03.2017 04:50 12,1 C 12,2 C 10,0 C 81 % 0 lf 1015,3 hPa 0,0 l/m 0 min 0 min 5 W/m 20,9 km/h (4 Bft) 97,87 %
31.03.2017 04:52 12,2 C 12,2 C 10,0 C 81 % 0 lf 1015,2 hPa 0,0 l/m 0 min 0 min 5 W/m 16,7 km/h (3 Bft) 93,62 %
31.03.2017 04:54 12,2 C 12,2 C 10,0 C 81 % 0 lf 1015,2 hPa 0,0 l/m 0 min 0 min 5 W/m 18,8 km/h (3 Bft) 95,65 %
31.03.2017 04:56 12,1 C 12,2 C 10,0 C 81 % 0 lf 1015,1 hPa 0,0 l/m 0 min 0 min 5 W/m 14,6 km/h (3 Bft) 95,74 %
31.03.2017 04:58 12,2 C 12,2 C 10,0 C 81 % 0 lf 1015,1 hPa 0,0 l/m 0 min 0 min 5 W/m 20,9 km/h (4 Bft) 95,74 %
31.03.2017 05:00 12,2 C 12,2 C 10,0 C 81 % 0 lf 1015,0 hPa 0,0 l/m 0 min 0 min 5 W/m 12,6 km/h (3 Bft) 100,00 %
31.03.2017 05:02 12,1 C 12,2 C 10,0 C 81 % 0 lf 1015,0 hPa 0,0 l/m 0 min 0 min 5 W/m 16,7 km/h (3 Bft) 97,87 %
31.03.2017 05:04 12,1 C 12,2 C 10,0 C 81 % 0 lf 1015,0 hPa 0,0 l/m 0 min 0 min 5 W/m 18,8 km/h (3 Bft) 93,62 %
31.03.2017 05:06 12,1 C 12,2 C 10,0 C 81 % 0 lf 1015,0 hPa 0,0 l/m 0 min 0 min 5 W/m 14,6 km/h (3 Bft) 89,13 %
31.03.2017 05:08 12,1 C 12,2 C 10,0 C 81 % 0 lf 1014,9 hPa 0,0 l/m 0 min 0 min 5 W/m 16,7 km/h (3 Bft) 97,87 %
31.03.2017 05:10 12,1 C 12,2 C 10,0 C 81 % 0 lf 1014,9 hPa 0,0 l/m 0 min 0 min 5 W/m 16,7 km/h (3 Bft) 100,00 %
31.03.2017 05:12 12,1 C 12,2 C 10,0 C 81 % 0 lf 1014,9 hPa 0,0 l/m 0 min 0 min 5 W/m 14,6 km/h (3 Bft) 95,74 %
31.03.2017 05:14 12,1 C 12,2 C 10,0 C 81 % 0 lf 1014,9 hPa 0,0 l/m 0 min 0 min 5 W/m 14,6 km/h (3 Bft) 97,87 %
31.03.2017 05:16 12,1 C 12,2 C 10,0 C 81 % 0 lf 1014,8 hPa 0,0 l/m 0 min 0 min 5 W/m 23,0 km/h (4 Bft) 95,65 %
31.03.2017 05:18 12,1 C 11,7 C 10,0 C 81 % 0 lf 1014,8 hPa 0,0 l/m 0 min 0 min 5 W/m 14,6 km/h (3 Bft) 93,62 %
31.03.2017 05:20 12,0 C 12,2 C 10,0 C 81 % 0 lf 1014,8 hPa 0,0 l/m 0 min 0 min 5 W/m 16,7 km/h (3 Bft) 93,62 %
31.03.2017 05:22 12,0 C 12,2 C 10,0 C 82 % 0 lf 1014,7 hPa 0,0 l/m 0 min 0 min 5 W/m 14,6 km/h (3 Bft) 93,62 %
31.03.2017 05:24 12,0 C 11,7 C 10,0 C 82 % 0 lf 1014,7 hPa 0,0 l/m 0 min 0 min 5 W/m 12,6 km/h (3 Bft) 93,62 %
31.03.2017 05:26 12,0 C 12,2 C 10,0 C 81 % 0 lf 1014,7 hPa 0,0 l/m 0 min 0 min 5 W/m 12,6 km/h (3 Bft) 91,49 %
31.03.2017 05:28 12,0 C 12,2 C 10,0 C 81 % 0 lf 1014,7 hPa 0,0 l/m 0 min 0 min 5 W/m 14,6 km/h (3 Bft) 91,30 %
31.03.2017 05:30 11,9 C 12,2 C 10,0 C 81 % 0 lf 1014,8 hPa 0,0 l/m 0 min 0 min 5 W/m 14,6 km/h (3 Bft) 93,62 %
31.03.2017 05:32 11,9 C 12,2 C 10,0 C 82 % 0 lf 1014,7 hPa 0,0 l/m 0 min 0 min 5 W/m 16,7 km/h (3 Bft) 95,74 %
31.03.2017 05:34 11,9 C 12,2 C 10,0 C 82 % 0 lf 1014,7 hPa 0,0 l/m 0 min 0 min 5 W/m 16,7 km/h (3 Bft) 95,74 %
31.03.2017 05:36 11,9 C 12,2 C 10,0 C 82 % 0 lf 1014,6 hPa 0,0 l/m 0 min 0 min 5 W/m 14,6 km/h (3 Bft) 93,62 %
31.03.2017 05:38 11,9 C 12,2 C 10,0 C 82 % 0 lf 1014,5 hPa 0,0 l/m 0 min 0 min 5 W/m 16,7 km/h (3 Bft) 93,62 %
31.03.2017 05:40 11,9 C 11,7 C 10,0 C 82 % 0 lf 1014,6 hPa 0,0 l/m 0 min 0 min 5 W/m 14,6 km/h (3 Bft) 93,48 %
31.03.2017 05:42 11,9 C 12,2 C 10,0 C 82 % 0 lf 1014,5 hPa 0,0 l/m 0 min 0 min 5 W/m 14,6 km/h (3 Bft) 95,74 %
31.03.2017 05:44 11,9 C 12,2 C 10,0 C 82 % 0 lf 1014,5 hPa 0,0 l/m 0 min 0 min 5 W/m 14,6 km/h (3 Bft) 93,62 %
31.03.2017 05:46 11,9 C 11,7 C 10,0 C 82 % 0 lf 1014,5 hPa 0,0 l/m 0 min 0 min 5 W/m 16,7 km/h (3 Bft) 93,62 %
31.03.2017 05:48 11,9 C 11,7 C 9,4 C 82 % 0 lf 1014,4 hPa 0,0 l/m 0 min 0 min 5 W/m 10,5 km/h (2 Bft) 91,49 %
31.03.2017 05:50 11,9 C 11,7 C 9,4 C 82 % 0 lf 1014,3 hPa 0,0 l/m 0 min 0 min 5 W/m 14,6 km/h (3 Bft) 89,36 %
31.03.2017 05:52 11,9 C 11,7 C 9,4 C 82 % 0 lf 1014,3 hPa 0,0 l/m 0 min 0 min 5 W/m 12,6 km/h (3 Bft) 91,30 %
31.03.2017 05:54 11,8 C 11,7 C 9,4 C 82 % 0 lf 1014,3 hPa 0,0 l/m 0 min 0 min 5 W/m 14,6 km/h (3 Bft) 95,74 %
31.03.2017 05:56 11,8 C 11,7 C 9,4 C 82 % 0 lf 1014,3 hPa 0,0 l/m 0 min 0 min 5 W/m 16,7 km/h (3 Bft) 93,62 %
31.03.2017 05:58 11,8 C 11,7 C 9,4 C 82 % 0 lf 1014,3 hPa 0,0 l/m 0 min 0 min 5 W/m 14,6 km/h (3 Bft) 95,74 %
31.03.2017 06:00 11,8 C 11,7 C 10,0 C 82 % 0 lf 1014,3 hPa 0,0 l/m 0 min 0 min 5 W/m 12,6 km/h (3 Bft) 97,87 %
31.03.2017 06:02 11,8 C 12,2 C 10,0 C 82 % 0 lf 1014,3 hPa 0,0 l/m 0 min 0 min 5 W/m 14,6 km/h (3 Bft) 97,87 %
31.03.2017 06:04 11,8 C 11,7 C 10,0 C 82 % 0 lf 1014,3 hPa 0,0 l/m 0 min 0 min 5 W/m 12,6 km/h (3 Bft) 97,83 %
31.03.2017 06:06 11,8 C 12,2 C 10,0 C 82 % 0 lf 1014,2 hPa 0,0 l/m 0 min 0 min 5 W/m 18,8 km/h (3 Bft) 91,49 %
31.03.2017 06:10 11,8 C 11,7 C 9,4 C 82 % 0 lf 1014,2 hPa 0,0 l/m 0 min 0 min 5 W/m 16,7 km/h (3 Bft) 93,62 %
31.03.2017 06:12 11,8 C 11,7 C 9,4 C 82 % 0 lf 1014,2 hPa 0,0 l/m 0 min 0 min 5 W/m 14,6 km/h (3 Bft) 97,87 %
31.03.2017 06:14 11,8 C 11,7 C 9,4 C 82 % 0 lf 1014,2 hPa 0,0 l/m 0 min 0 min 5 W/m 16,7 km/h (3 Bft) 91,49 %
31.03.2017 06:16 11,8 C 11,7 C 9,4 C 82 % 0 lf 1014,2 hPa 0,0 l/m 0 min 0 min 5 W/m 12,6 km/h (3 Bft) 91,49 %
31.03.2017 06:18 11,8 C 11,7 C 9,4 C 82 % 0 lf 1014,1 hPa 0,0 l/m 0 min 0 min 5 W/m 16,7 km/h (3 Bft) 97,87 %
31.03.2017 06:20 11,8 C 11,7 C 9,4 C 82 % 0 lf 1014,1 hPa 0,0 l/m 0 min 0 min 5 W/m 18,8 km/h (3 Bft) 93,62 %
31.03.2017 06:22 11,8 C 11,7 C 9,4 C 82 % 0 lf 1014,1 hPa 0,0 l/m 0 min 0 min 5 W/m 16,7 km/h (3 Bft) 95,65 %
31.03.2017 06:24 11,8 C 11,7 C 9,4 C 82 % 0 lf 1014,2 hPa 0,0 l/m 0 min 0 min 5 W/m 14,6 km/h (3 Bft) 95,74 %
31.03.2017 06:26 11,8 C 11,7 C 9,4 C 82 % 0 lf 1014,1 hPa 0,0 l/m 0 min 0 min 5 W/m 23,0 km/h (4 Bft) 95,74 %
31.03.2017 06:28 11,7 C 11,7 C 9,4 C 82 % 0 lf 1014,1 hPa 0,0 l/m 0 min 0 min 0 W/m 18,8 km/h (3 Bft) 95,74 %
31.03.2017 06:30 11,7 C 11,7 C 9,4 C 82 % 0 lf 1014,1 hPa 0,0 l/m 0 min 0 min 0 W/m 12,6 km/h (3 Bft) 91,49 %
31.03.2017 06:32 11,7 C 11,7 C 9,4 C 82 % 0 lf 1014,0 hPa 0,0 l/m 0 min 0 min 0 W/m 16,7 km/h (3 Bft) 97,87 %
31.03.2017 06:34 11,7 C 11,7 C 9,4 C 82 % 0 lf 1014,1 hPa 0,0 l/m 0 min 0 min 0 W/m 14,6 km/h (3 Bft) 95,65 %
31.03.2017 06:36 11,7 C 11,7 C 9,4 C 82 % 0 lf 1014,0 hPa 0,0 l/m 0 min 0 min 5 W/m 16,7 km/h (3 Bft) 97,87 %
31.03.2017 06:38 11,7 C 11,7 C 9,4 C 82 % 0 lf 1014,1 hPa 0,0 l/m 0 min 0 min 5 W/m 16,7 km/h (3 Bft) 95,74 %
31.03.2017 06:40 11,7 C 11,7 C 9,4 C 82 % 0 lf 1014,0 hPa 0,0 l/m 0 min 0 min 5 W/m 18,8 km/h (3 Bft) 95,74 %
31.03.2017 06:42 11,6 C 11,7 C 9,4 C 82 % 0 lf 1014,0 hPa 0,0 l/m 0 min 0 min 5 W/m 16,7 km/h (3 Bft) 95,74 %
31.03.2017 06:44 11,6 C 11,7 C 9,4 C 82 % 0 lf 1014,0 hPa 0,0 l/m 0 min 0 min 5 W/m 20,9 km/h (4 Bft) 95,74 %
31.03.2017 06:46 11,6 C 11,7 C 9,4 C 82 % 0 lf 1014,0 hPa 0,0 l/m 0 min 0 min 5 W/m 16,7 km/h (3 Bft) 93,48 %
31.03.2017 06:48 11,6 C 11,7 C 9,4 C 82 % 0 lf 1013,9 hPa 0,0 l/m 0 min 0 min 5 W/m 16,7 km/h (3 Bft) 95,74 %
31.03.2017 06:50 11,6 C 11,7 C 9,4 C 82 % 0 lf 1014,0 hPa 0,0 l/m 0 min 0 min 5 W/m 18,8 km/h (3 Bft) 95,74 %
31.03.2017 06:52 11,6 C 11,7 C 9,4 C 82 % 0 lf 1013,9 hPa 0,0 l/m 0 min 0 min 5 W/m 18,8 km/h (3 Bft) 100,00 %
31.03.2017 06:54 11,6 C 11,7 C 9,4 C 82 % 0 lf 1014,0 hPa 0,0 l/m 0 min 0 min 0 W/m 14,6 km/h (3 Bft) 100,00 %
31.03.2017 06:56 11,6 C 11,7 C 9,4 C 82 % 0 lf 1014,0 hPa 0,0 l/m 0 min 0 min 5 W/m 18,8 km/h (3 Bft) 97,83 %
31.03.2017 06:58 11,6 C 11,7 C 9,4 C 82 % 0 lf 1013,9 hPa 0,0 l/m 0 min 0 min 5 W/m 16,7 km/h (3 Bft) 100,00 %
31.03.2017 07:00 11,6 C 11,7 C 9,4 C 82 % 0 lf 1013,9 hPa 0,0 l/m 0 min 0 min 5 W/m 18,8 km/h (3 Bft) 97,87 %
31.03.2017 07:02 11,6 C 11,7 C 9,4 C 82 % 0 lf 1013,8 hPa 0,0 l/m 0 min 0 min 5 W/m 14,6 km/h (3 Bft) 97,87 %
31.03.2017 07:04 11,6 C 11,7 C 9,4 C 82 % 0 lf 1013,8 hPa 0,0 l/m 0 min 0 min 5 W/m 12,6 km/h (3 Bft) 100,00 %
31.03.2017 07:06 11,6 C 11,7 C 9,4 C 82 % 0 lf 1013,7 hPa 0,0 l/m 0 min 0 min 5 W/m 16,7 km/h (3 Bft) 95,74 %
31.03.2017 07:08 11,6 C 11,7 C 9,4 C 82 % 0 lf 1013,8 hPa 0,0 l/m 0 min 0 min 5 W/m 16,7 km/h (3 Bft) 100,00 %
31.03.2017 07:10 11,5 C 11,7 C 9,4 C 82 % 0 lf 1013,8 hPa 0,0 l/m 0 min 0 min 5 W/m 16,7 km/h (3 Bft) 98,00 %
31.03.2017 07:12 11,5 C 11,7 C 9,4 C 82 % 0 lf 1013,8 hPa 0,0 l/m 0 min 0 min 7 W/m 20,9 km/h (4 Bft) 97,83 %
31.03.2017 07:14 11,5 C 11,7 C 9,4 C 82 % 0 lf 1013,8 hPa 0,0 l/m 0 min 0 min 7 W/m 16,7 km/h (3 Bft) 97,87 %
31.03.2017 07:16 11,5 C 11,7 C 9,4 C 82 % 0 lf 1013,8 hPa 0,0 l/m 0 min 0 min 9 W/m 18,8 km/h (3 Bft) 100,00 %
31.03.2017 07:18 11,5 C 11,7 C 9,4 C 82 % 0 lf 1013,7 hPa 0,0 l/m 0 min 0 min 10 W/m 16,7 km/h (3 Bft) 97,87 %
31.03.2017 07:20 11,5 C 11,7 C 9,4 C 82 % 0 lf 1013,7 hPa 0,0 l/m 0 min 0 min 11 W/m 16,7 km/h (3 Bft) 100,00 %
31.03.2017 07:22 11,5 C 11,7 C 9,4 C 82 % 0 lf 1013,7 hPa 0,0 l/m 0 min 0 min 11 W/m 14,6 km/h (3 Bft) 100,00 %
31.03.2017 07:24 11,5 C 11,7 C 9,4 C 82 % 0 lf 1013,6 hPa 0,0 l/m 0 min 0 min 12 W/m 18,8 km/h (3 Bft) 100,00 %
31.03.2017 07:26 11,5 C 11,7 C 9,4 C 82 % 0 lf 1013,7 hPa 0,0 l/m 0 min 0 min 14 W/m 23,0 km/h (4 Bft) 100,00 %
31.03.2017 07:28 11,5 C 11,7 C 9,4 C 82 % 0 lf 1013,7 hPa 0,0 l/m 0 min 0 min 15 W/m 18,8 km/h (3 Bft) 100,00 %
31.03.2017 07:30 11,4 C 11,7 C 9,4 C 82 % 0 lf 1013,7 hPa 0,0 l/m 0 min 0 min 16 W/m 18,8 km/h (3 Bft) 100,00 %
31.03.2017 07:32 11,5 C 11,7 C 9,4 C 82 % 0 lf 1013,7 hPa 0,0 l/m 0 min 0 min 18 W/m 20,9 km/h (4 Bft) 100,00 %
31.03.2017 07:34 11,4 C 11,7 C 9,4 C 82 % 0 lf 1013,7 hPa 0,0 l/m 0 min 0 min 20 W/m 20,9 km/h (4 Bft) 100,00 %
31.03.2017 07:36 11,4 C 11,7 C 9,4 C 82 % 0 lf 1013,7 hPa 0,0 l/m 0 min 0 min 22 W/m 18,8 km/h (3 Bft) 100,00 %
31.03.2017 07:38 11,4 C 11,7 C 9,4 C 82 % 0 lf 1013,6 hPa 0,0 l/m 0 min 0 min 24 W/m 27,2 km/h (4 Bft) 100,00 %
31.03.2017 07:40 11,4 C 11,7 C 9,4 C 82 % 0 lf 1013,7 hPa 0,0 l/m 0 min 0 min 26 W/m 23,0 km/h (4 Bft) 97,87 %
31.03.2017 07:42 11,4 C 11,7 C 9,4 C 82 % 0 lf 1013,6 hPa 0,0 l/m 0 min 0 min 27 W/m 14,6 km/h (3 Bft) 97,87 %
31.03.2017 07:44 11,4 C 11,7 C 9,4 C 82 % 0 lf 1013,6 hPa 0,0 l/m 0 min 0 min 29 W/m 20,9 km/h (4 Bft) 93,62 %
31.03.2017 07:46 11,4 C 11,7 C 9,4 C 82 % 0 lf 1013,6 hPa 0,0 l/m 0 min 0 min 30 W/m 18,8 km/h (3 Bft) 100,00 %
31.03.2017 07:48 11,4 C 11,7 C 9,4 C 82 % 0 lf 1013,6 hPa 0,0 l/m 0 min 0 min 32 W/m 23,0 km/h (4 Bft) 100,00 %
31.03.2017 07:50 11,4 C 11,7 C 9,4 C 83 % 0 lf 1013,6 hPa 0,0 l/m 0 min 0 min 33 W/m 27,2 km/h (4 Bft) 100,00 %
31.03.2017 07:52 11,4 C 11,7 C 9,4 C 83 % 0 lf 1013,6 hPa 0,0 l/m 0 min 0 min 35 W/m 14,6 km/h (3 Bft) 95,74 %
31.03.2017 07:54 11,4 C 11,7 C 9,4 C 83 % 0 lf 1013,6 hPa 0,0 l/m 0 min 0 min 38 W/m 20,9 km/h (4 Bft) 97,87 %
31.03.2017 07:56 11,4 C 11,7 C 9,4 C 83 % 0 lf 1013,6 hPa 0,0 l/m 0 min 0 min 39 W/m 16,7 km/h (3 Bft) 100,00 %
31.03.2017 07:58 11,4 C 11,7 C 9,4 C 83 % 0 lf 1013,6 hPa 0,0 l/m 0 min 0 min 40 W/m 20,9 km/h (4 Bft) 100,00 %
31.03.2017 08:00 11,4 C 11,7 C 9,4 C 83 % 0 lf 1013,6 hPa 0,0 l/m 0 min 0 min 41 W/m 18,8 km/h (3 Bft) 97,83 %
31.03.2017 08:02 11,4 C 11,7 C 9,4 C 83 % 0 lf 1013,5 hPa 0,0 l/m 0 min 0 min 43 W/m 23,0 km/h (4 Bft) 100,00 %
31.03.2017 08:04 11,4 C 11,7 C 9,4 C 83 % 0 lf 1013,6 hPa 0,0 l/m 0 min 0 min 45 W/m 16,7 km/h (3 Bft) 100,00 %
31.03.2017 08:06 11,4 C 11,7 C 9,4 C 83 % 0 lf 1013,6 hPa 0,0 l/m 0 min 0 min 47 W/m 18,8 km/h (3 Bft) 93,62 %
31.03.2017 08:08 11,4 C 11,7 C 9,4 C 83 % 0 lf 1013,6 hPa 0,0 l/m 0 min 0 min 49 W/m 16,7 km/h (3 Bft) 97,87 %
31.03.2017 08:10 11,4 C 11,7 C 9,4 C 83 % 0 lf 1013,6 hPa 0,0 l/m 0 min 0 min 51 W/m 20,9 km/h (4 Bft) 91,49 %
31.03.2017 08:12 11,4 C 11,7 C 10,0 C 83 % 0 lf 1013,6 hPa 0,0 l/m 0 min 0 min 54 W/m 16,7 km/h (3 Bft) 97,83 %
31.03.2017 08:14 11,4 C 12,2 C 10,0 C 83 % 0 lf 1013,5 hPa 0,0 l/m 0 min 0 min 57 W/m 16,7 km/h (3 Bft) 95,74 %
31.03.2017 08:16 11,4 C 12,2 C 10,0 C 83 % 0 lf 1013,6 hPa 0,0 l/m 0 min 0 min 61 W/m 16,7 km/h (3 Bft) 95,74 %
31.03.2017 08:18 11,4 C 12,2 C 10,0 C 83 % 0 lf 1013,6 hPa 0,0 l/m 0 min 0 min 67 W/m 16,7 km/h (3 Bft) 97,87 %
31.03.2017 08:20 11,4 C 12,2 C 10,0 C 83 % 0 lf 1013,5 hPa 0,0 l/m 0 min 0 min 72 W/m 16,7 km/h (3 Bft) 93,62 %
31.03.2017 08:22 11,4 C 12,2 C 10,0 C 83 % 0 lf 1013,5 hPa 0,0 l/m 0 min 0 min 77 W/m 18,8 km/h (3 Bft) 94,29 %
31.03.2017 08:24 11,5 C 12,2 C 10,0 C 83 % 0 lf 1013,5 hPa 0,0 l/m 0 min 0 min 77 W/m 18,8 km/h (3 Bft) 91,49 %
31.03.2017 08:26 11,5 C 12,2 C 10,0 C 83 % 0 lf 1013,4 hPa 0,0 l/m 0 min 0 min 79 W/m 18,8 km/h (3 Bft) 95,74 %
31.03.2017 08:28 11,5 C 12,2 C 10,0 C 83 % 0 lf 1013,4 hPa 0,0 l/m 0 min 0 min 81 W/m 18,8 km/h (3 Bft) 93,62 %
31.03.2017 08:30 11,6 C 12,2 C 10,0 C 83 % 0 lf 1013,4 hPa 0,0 l/m 0 min 0 min 82 W/m 23,0 km/h (4 Bft) 91,49 %
31.03.2017 08:32 11,6 C 12,2 C 10,0 C 83 % 0 lf 1013,4 hPa 0,0 l/m 0 min 0 min 85 W/m 16,7 km/h (3 Bft) 91,49 %
31.03.2017 08:34 11,6 C 12,2 C 10,6 C 83 % 0 lf 1013,3 hPa 0,0 l/m 0 min 0 min 94 W/m 18,8 km/h (3 Bft) 86,96 %
31.03.2017 08:36 11,6 C 12,8 C 10,6 C 83 % 0 lf 1013,3 hPa 0,0 l/m 0 min 0 min 102 W/m 16,7 km/h (3 Bft) 93,62 %
31.03.2017 08:38 11,7 C 12,8 C 10,6 C 83 % 0 lf 1013,3 hPa 0,0 l/m 2 min 0 min 109 W/m 20,9 km/h (4 Bft) 91,49 %
31.03.2017 08:40 11,7 C 12,8 C 10,6 C 83 % 0 lf 1013,3 hPa 0,0 l/m 0 min 0 min 107 W/m 18,8 km/h (3 Bft) 91,49 %
31.03.2017 08:42 11,7 C 13,3 C 10,6 C 83 % 0 lf 1013,3 hPa 0,0 l/m 2 min 0 min 114 W/m 14,6 km/h (3 Bft) 89,36 %
31.03.2017 08:44 11,8 C 13,3 C 10,6 C 83 % 0 lf 1013,3 hPa 0,0 l/m 2 min 0 min 117 W/m 20,9 km/h (4 Bft) 91,49 %
31.03.2017 08:46 11,8 C 13,3 C 10,6 C 83 % 0 lf 1013,3 hPa 0,0 l/m 0 min 0 min 112 W/m 23,0 km/h (4 Bft) 89,13 %
31.03.2017 08:48 11,8 C 13,3 C 10,6 C 82 % 0 lf 1013,3 hPa 0,0 l/m 0 min 0 min 107 W/m 18,8 km/h (3 Bft) 91,49 %
31.03.2017 08:50 11,9 C 13,3 C 10,6 C 82 % 0 lf 1013,3 hPa 0,0 l/m 0 min 0 min 112 W/m 18,8 km/h (3 Bft) 88,14 %
31.03.2017 08:52 11,9 C 13,3 C 11,1 C 82 % 0 lf 1013,3 hPa 0,0 l/m 0 min 0 min 121 W/m 16,7 km/h (3 Bft) 91,43 %
31.03.2017 08:54 12,0 C 13,3 C 11,1 C 82 % 0 lf 1013,2 hPa 0,0 l/m 0 min 0 min 119 W/m 20,9 km/h (4 Bft) 95,74 %
31.03.2017 08:56 12,1 C 13,3 C 11,1 C 82 % 0 lf 1013,3 hPa 0,0 l/m 0 min 0 min 116 W/m 23,0 km/h (4 Bft) 95,65 %
31.03.2017 08:58 12,1 C 13,3 C 11,1 C 82 % 0 lf 1013,2 hPa 0,0 l/m 0 min 0 min 124 W/m 18,8 km/h (3 Bft) 91,49 %
31.03.2017 09:00 12,2 C 13,9 C 11,1 C 82 % 0 lf 1013,2 hPa 0,0 l/m 0 min 0 min 130 W/m 16,7 km/h (3 Bft) 91,49 %
31.03.2017 09:02 12,2 C 13,9 C 11,1 C 82 % 0 lf 1013,2 hPa 0,0 l/m 0 min 0 min 130 W/m 20,9 km/h (4 Bft) 93,62 %
31.03.2017 09:04 12,2 C 13,9 C 11,1 C 82 % 0 lf 1013,2 hPa 0,0 l/m 2 min 0 min 151 W/m 18,8 km/h (3 Bft) 93,62 %
31.03.2017 09:06 12,2 C 14,4 C 11,7 C 82 % 0 lf 1013,2 hPa 0,0 l/m 2 min 0 min 169 W/m 18,8 km/h (3 Bft) 93,62 %
31.03.2017 09:08 12,3 C 14,4 C 11,7 C 81 % 0 lf 1013,2 hPa 0,0 l/m 2 min 0 min 178 W/m 18,8 km/h (3 Bft) 95,65 %
31.03.2017 09:10 12,4 C 15,0 C 11,7 C 81 % 0 lf 1013,2 hPa 0,0 l/m 2 min 0 min 181 W/m 18,8 km/h (3 Bft) 95,74 %
31.03.2017 09:12 12,4 C 14,4 C 11,7 C 81 % 0 lf 1013,2 hPa 0,0 l/m 2 min 0 min 190 W/m 16,7 km/h (3 Bft) 93,62 %
31.03.2017 09:14 12,5 C 15,0 C 11,7 C 81 % 0 lf 1013,2 hPa 0,0 l/m 2 min 0 min 179 W/m 14,6 km/h (3 Bft) 93,62 %
31.03.2017 09:16 12,6 C 15,0 C 11,7 C 81 % 0 lf 1013,1 hPa 0,0 l/m 2 min 0 min 174 W/m 14,6 km/h (3 Bft) 95,74 %
31.03.2017 09:18 12,6 C 15,0 C 12,2 C 81 % 0 lf 1013,2 hPa 0,0 l/m 2 min 0 min 209 W/m 16,7 km/h (3 Bft) 97,87 %
31.03.2017 09:20 12,7 C 16,1 C 12,2 C 81 % 0 lf 1013,2 hPa 0,0 l/m 2 min 0 min 248 W/m 16,7 km/h (3 Bft) 96,55 %
31.03.2017 09:22 12,8 C 16,1 C 12,2 C 81 % 0 lf 1013,2 hPa 0,0 l/m 2 min 0 min 246 W/m 20,9 km/h (4 Bft) 94,29 %
31.03.2017 09:24 12,9 C 16,1 C 12,2 C 80 % 0 lf 1013,1 hPa 0,0 l/m 2 min 0 min 250 W/m 16,7 km/h (3 Bft) 97,87 %
31.03.2017 09:26 12,9 C 15,6 C 12,8 C 80 % 0 lf 1013,2 hPa 0,0 l/m 2 min 0 min 224 W/m 20,9 km/h (4 Bft) 97,87 %
31.03.2017 09:28 13,1 C 15,6 C 12,8 C 80 % 0 lf 1013,2 hPa 0,0 l/m 2 min 0 min 215 W/m 20,9 km/h (4 Bft) 95,74 %
31.03.2017 09:30 13,1 C 15,6 C 12,8 C 80 % 0 lf 1013,2 hPa 0,0 l/m 2 min 0 min 239 W/m 18,8 km/h (3 Bft) 97,87 %
31.03.2017 09:32 13,2 C 15,6 C 12,8 C 79 % 0 lf 1013,2 hPa 0,0 l/m 2 min 0 min 237 W/m 16,7 km/h (3 Bft) 95,65 %
31.03.2017 09:34 13,3 C 15,6 C 12,8 C 79 % 0 lf 1013,2 hPa 0,0 l/m 2 min 0 min 219 W/m 23,0 km/h (4 Bft) 97,87 %
31.03.2017 09:36 13,3 C 16,7 C 12,8 C 79 % 0 lf 1013,2 hPa 0,0 l/m 2 min 0 min 297 W/m 16,7 km/h (3 Bft) 97,87 %
31.03.2017 09:38 13,4 C 17,2 C 13,3 C 79 % 0 lf 1013,1 hPa 0,0 l/m 2 min 0 min 302 W/m 20,9 km/h (4 Bft) 93,62 %
31.03.2017 09:40 13,5 C 17,2 C 13,3 C 79 % 0 lf 1013,2 hPa 0,0 l/m 2 min 0 min 318 W/m 20,9 km/h (4 Bft) 95,74 %
31.03.2017 09:42 13,6 C 17,2 C 13,3 C 79 % 0 lf 1013,1 hPa 0,0 l/m 2 min 0 min 289 W/m 20,9 km/h (4 Bft) 100,00 %
31.03.2017 09:44 13,7 C 17,2 C 13,3 C 78 % 0 lf 1013,1 hPa 0,0 l/m 2 min 0 min 286 W/m 14,6 km/h (3 Bft) 97,83 %
31.03.2017 09:46 13,8 C 17,2 C 13,9 C 78 % 0 lf 1013,1 hPa 0,0 l/m 2 min 0 min 317 W/m 14,6 km/h (3 Bft) 100,00 %
31.03.2017 09:48 13,9 C 17,8 C 13,9 C 78 % 0 lf 1013,1 hPa 0,0 l/m 2 min 0 min 326 W/m 18,8 km/h (3 Bft) 95,74 %
31.03.2017 09:50 14,0 C 18,3 C 14,4 C 78 % 0 lf 1013,1 hPa 0,0 l/m 2 min 0 min 339 W/m 14,6 km/h (3 Bft) 100,00 %
31.03.2017 09:52 14,1 C 18,3 C 15,0 C 78 % 0 lf 1013,0 hPa 0,0 l/m 2 min 0 min 344 W/m 14,6 km/h (3 Bft) 100,00 %
31.03.2017 09:54 14,2 C 18,9 C 15,6 C 78 % 0 lf 1013,0 hPa 0,0 l/m 2 min 0 min 341 W/m 18,8 km/h (3 Bft) 97,87 %
31.03.2017 09:56 14,2 C 18,3 C 15,6 C 78 % 0 lf 1013,0 hPa 0,0 l/m 2 min 0 min 364 W/m 23,0 km/h (4 Bft) 97,83 %
31.03.2017 09:58 14,3 C 18,3 C 16,1 C 77 % 0 lf 1013,0 hPa 0,0 l/m 2 min 0 min 352 W/m 16,7 km/h (3 Bft) 97,87 %
31.03.2017 10:00 14,4 C 18,9 C 16,7 C 77 % 0 lf 1013,0 hPa 0,0 l/m 2 min 0 min 354 W/m 18,8 km/h (3 Bft) 100,00 %
31.03.2017 10:02 14,6 C 18,9 C 16,7 C 77 % 0 lf 1013,0 hPa 0,0 l/m 2 min 0 min 344 W/m 12,6 km/h (3 Bft) 97,87 %
31.03.2017 10:04 14,7 C 19,4 C 17,2 C 77 % 0 lf 1012,9 hPa 0,0 l/m 2 min 0 min 390 W/m 16,7 km/h (3 Bft) 97,87 %
31.03.2017 10:06 14,8 C 19,4 C 17,8 C 76 % 0 lf 1013,0 hPa 0,0 l/m 2 min 0 min 427 W/m 20,9 km/h (4 Bft) 100,00 %
31.03.2017 10:08 14,9 C 20,0 C 18,3 C 76 % 0 lf 1013,0 hPa 0,0 l/m 2 min 0 min 417 W/m 20,9 km/h (4 Bft) 100,00 %
31.03.2017 10:10 15,0 C 19,4 C 18,3 C 76 % 0 lf 1012,9 hPa 0,0 l/m 2 min 0 min 406 W/m 25,1 km/h (4 Bft) 97,87 %
31.03.2017 10:12 15,2 C 18,9 C 17,8 C 75 % 0 lf 1013,0 hPa 0,0 l/m 2 min 0 min 336 W/m 18,8 km/h (3 Bft) 97,87 %
31.03.2017 10:14 15,2 C 19,4 C 18,3 C 75 % 0 lf 1013,0 hPa 0,0 l/m 2 min 0 min 407 W/m 23,0 km/h (4 Bft) 97,87 %
31.03.2017 10:16 15,4 C 19,4 C 18,9 C 75 % 0 lf 1013,0 hPa 0,0 l/m 2 min 0 min 452 W/m 25,1 km/h (4 Bft) 100,00 %
31.03.2017 10:18 15,4 C 20,6 C 19,4 C 74 % 0 lf 1013,0 hPa 0,0 l/m 2 min 0 min 467 W/m 23,0 km/h (4 Bft) 100,00 %
31.03.2017 10:20 15,6 C 20,6 C 19,4 C 74 % 0 lf 1013,0 hPa 0,0 l/m 2 min 0 min 441 W/m 16,7 km/h (3 Bft) 100,00 %
31.03.2017 10:22 15,7 C 19,4 C 19,4 C 74 % 0 lf 1013,0 hPa 0,0 l/m 2 min 0 min 436 W/m 23,0 km/h (4 Bft) 97,14 %
31.03.2017 10:24 15,8 C 20,6 C 19,4 C 74 % 0 lf 1012,9 hPa 0,0 l/m 2 min 0 min 427 W/m 20,9 km/h (4 Bft) 93,62 %
31.03.2017 10:26 15,9 C 20,6 C 20,0 C 74 % 0 lf 1012,9 hPa 0,0 l/m 2 min 0 min 437 W/m 16,7 km/h (3 Bft) 97,87 %
31.03.2017 10:28 16,1 C 20,6 C 19,4 C 73 % 0 lf 1013,0 hPa 0,0 l/m 2 min 0 min 388 W/m 18,8 km/h (3 Bft) 97,87 %
31.03.2017 10:30 16,2 C 21,7 C 19,4 C 73 % 0 lf 1012,9 hPa 0,0 l/m 2 min 0 min 389 W/m 14,6 km/h (3 Bft) 97,83 %
31.03.2017 10:32 16,2 C 20,0 C 19,4 C 72 % 0 lf 1013,0 hPa 0,0 l/m 2 min 0 min 438 W/m 16,7 km/h (3 Bft) 97,87 %
31.03.2017 10:34 16,3 C 20,0 C 19,4 C 72 % 0 lf 1013,0 hPa 0,0 l/m 2 min 0 min 432 W/m 18,8 km/h (3 Bft) 93,62 %
31.03.2017 10:36 16,4 C 20,0 C 19,4 C 72 % 0 lf 1012,9 hPa 0,0 l/m 2 min 0 min 417 W/m 20,9 km/h (4 Bft) 97,87 %
31.03.2017 10:38 16,6 C 21,1 C 19,4 C 72 % 0 lf 1012,9 hPa 0,0 l/m 2 min 0 min 428 W/m 18,8 km/h (3 Bft) 93,62 %
31.03.2017 10:40 16,6 C 20,6 C 19,4 C 72 % 0 lf 1012,9 hPa 0,0 l/m 2 min 0 min 384 W/m 18,8 km/h (3 Bft) 97,87 %
31.03.2017 10:42 16,7 C 21,1 C 19,4 C 72 % 0 lf 1012,9 hPa 0,0 l/m 2 min 0 min 406 W/m 16,7 km/h (3 Bft) 97,87 %
31.03.2017 10:44 16,8 C 21,1 C 19,4 C 71 % 0 lf 1012,9 hPa 0,0 l/m 2 min 0 min 442 W/m 12,6 km/h (3 Bft) 95,65 %
31.03.2017 10:46 16,9 C 21,1 C 18,9 C 71 % 0 lf 1012,9 hPa 0,0 l/m 2 min 0 min 393 W/m 14,6 km/h (3 Bft) 95,74 %
31.03.2017 10:48 17,0 C 21,7 C 18,9 C 71 % 0 lf 1012,9 hPa 0,0 l/m 2 min 0 min 434 W/m 16,7 km/h (3 Bft) 97,87 %
31.03.2017 10:50 17,1 C 22,8 C 18,9 C 71 % 0 lf 1013,0 hPa 0,0 l/m 2 min 0 min 477 W/m 12,6 km/h (3 Bft) 97,87 %
31.03.2017 10:52 17,2 C 22,8 C 19,4 C 70 % 0 lf 1012,9 hPa 0,0 l/m 2 min 0 min 521 W/m 18,8 km/h (3 Bft) 95,74 %
31.03.2017 10:54 17,3 C 23,9 C 20,0 C 70 % 0 lf 1012,9 hPa 0,0 l/m 2 min 0 min 534 W/m 12,6 km/h (3 Bft) 95,74 %
31.03.2017 10:56 17,4 C 23,9 C 21,1 C 70 % 0 lf 1012,9 hPa 0,0 l/m 2 min 0 min 552 W/m 16,7 km/h (3 Bft) 95,65 %
31.03.2017 10:58 17,6 C 24,4 C 21,7 C 69 % 0 lf 1012,9 hPa 0,0 l/m 2 min 0 min 561 W/m 12,6 km/h (3 Bft) 95,74 %
31.03.2017 11:00 17,8 C 24,4 C 22,8 C 70 % 0 lf 1012,9 hPa 0,0 l/m 2 min 0 min 516 W/m 12,6 km/h (3 Bft) 97,87 %
31.03.2017 11:02 17,9 C 25,0 C 22,8 C 69 % 0 lf 1012,9 hPa 0,0 l/m 2 min 0 min 525 W/m 12,6 km/h (3 Bft) 95,74 %
31.03.2017 11:04 18,1 C 24,4 C 23,9 C 69 % 0 lf 1013,0 hPa 0,0 l/m 2 min 0 min 564 W/m 10,5 km/h (2 Bft) 97,87 %
31.03.2017 11:06 18,2 C 25,0 C 24,4 C 68 % 0 lf 1012,9 hPa 0,0 l/m 2 min 0 min 558 W/m 12,6 km/h (3 Bft) 97,83 %
31.03.2017 11:08 18,3 C 26,1 C 23,9 C 68 % 0 lf 1012,9 hPa 0,0 l/m 2 min 0 min 515 W/m 10,5 km/h (2 Bft) 95,74 %
31.03.2017 11:10 18,5 C 25,6 C 23,3 C 68 % 0 lf 1012,9 hPa 0,0 l/m 2 min 0 min 453 W/m 10,5 km/h (2 Bft) 95,74 %
31.03.2017 11:12 18,6 C 25,0 C 23,3 C 67 % 0 lf 1012,9 hPa 0,0 l/m 2 min 0 min 501 W/m 12,6 km/h (3 Bft) 97,87 %
31.03.2017 11:14 18,8 C 23,9 C 23,3 C 65 % 0 lf 1012,9 hPa 0,0 l/m 2 min 0 min 498 W/m 18,8 km/h (3 Bft) 97,87 %
31.03.2017 11:16 18,9 C 23,3 C 23,9 C 63 % 0 lf 1012,9 hPa 0,0 l/m 2 min 0 min 538 W/m 20,9 km/h (4 Bft) 97,87 %
31.03.2017 11:18 19,0 C 24,4 C 23,9 C 62 % 0 lf 1012,8 hPa 0,0 l/m 2 min 0 min 486 W/m 12,6 km/h (3 Bft) 95,65 %
31.03.2017 11:20 19,1 C 25,0 C 23,9 C 63 % 0 lf 1012,8 hPa 0,0 l/m 2 min 0 min 440 W/m 12,6 km/h (3 Bft) 93,22 %
31.03.2017 11:22 19,2 C 24,4 C 23,9 C 62 % 0 lf 1012,8 hPa 0,0 l/m 2 min 0 min 455 W/m 18,8 km/h (3 Bft) 100,00 %
31.03.2017 11:24 19,3 C 24,4 C 23,3 C 62 % 0 lf 1012,8 hPa 0,0 l/m 2 min 0 min 450 W/m 25,1 km/h (4 Bft) 95,74 %
31.03.2017 11:26 19,4 C 25,0 C 23,3 C 61 % 0 lf 1012,8 hPa 0,0 l/m 2 min 0 min 509 W/m 12,6 km/h (3 Bft) 95,74 %
31.03.2017 11:28 19,5 C 24,4 C 23,9 C 61 % 0 lf 1012,8 hPa 0,0 l/m 2 min 0 min 559 W/m 14,6 km/h (3 Bft) 95,74 %
31.03.2017 11:30 19,6 C 24,4 C 24,4 C 61 % 0 lf 1012,8 hPa 0,0 l/m 2 min 0 min 593 W/m 16,7 km/h (3 Bft) 97,83 %
31.03.2017 11:32 19,7 C 26,1 C 24,4 C 62 % 0 lf 1012,8 hPa 0,0 l/m 2 min 0 min 597 W/m 14,6 km/h (3 Bft) 93,62 %
31.03.2017 11:34 19,8 C 25,6 C 25,0 C 61 % 0 lf 1012,8 hPa 0,0 l/m 2 min 0 min 565 W/m 12,6 km/h (3 Bft) 91,49 %
31.03.2017 11:36 19,9 C 25,6 C 25,0 C 62 % 0 lf 1012,8 hPa 0,0 l/m 2 min 0 min 569 W/m 14,6 km/h (3 Bft) 95,74 %
31.03.2017 11:38 20,1 C 25,6 C 25,6 C 60 % 0 lf 1012,8 hPa 0,0 l/m 2 min 0 min 602 W/m 23,0 km/h (4 Bft) 95,74 %
31.03.2017 11:40 20,1 C 26,1 C 25,6 C 60 % 0 lf 1012,8 hPa 0,0 l/m 2 min 0 min 584 W/m 20,9 km/h (4 Bft) 95,74 %
31.03.2017 11:42 20,2 C 25,6 C 25,0 C 59 % 0 lf 1012,8 hPa 0,0 l/m 2 min 0 min 543 W/m 14,6 km/h (3 Bft) 97,83 %
31.03.2017 11:44 20,3 C 25,6 C 24,4 C 60 % 0 lf 1012,8 hPa 0,0 l/m 2 min 0 min 481 W/m 12,6 km/h (3 Bft) 97,87 %
31.03.2017 11:46 20,4 C 26,1 C 24,4 C 60 % 0 lf 1012,8 hPa 0,0 l/m 2 min 0 min 398 W/m 10,5 km/h (2 Bft) 97,87 %
31.03.2017 11:48 20,4 C 26,1 C 24,4 C 59 % 0 lf 1012,7 hPa 0,0 l/m 2 min 0 min 500 W/m 16,7 km/h (3 Bft) 95,74 %
31.03.2017 11:50 20,5 C 27,2 C 24,4 C 59 % 0 lf 1012,7 hPa 0,0 l/m 2 min 0 min 564 W/m 16,7 km/h (3 Bft) 96,55 %
31.03.2017 11:52 20,6 C 26,1 C 25,0 C 58 % 0 lf 1012,7 hPa 0,0 l/m 2 min 0 min 512 W/m 18,8 km/h (3 Bft) 97,14 %
31.03.2017 11:54 20,7 C 25,6 C 25,6 C 57 % 0 lf 1012,7 hPa 0,0 l/m 2 min 0 min 547 W/m 23,0 km/h (4 Bft) 97,87 %
31.03.2017 11:56 20,8 C 25,6 C 25,6 C 56 % 0 lf 1012,6 hPa 0,0 l/m 2 min 0 min 557 W/m 16,7 km/h (3 Bft) 95,74 %
31.03.2017 11:58 20,8 C 25,6 C 25,6 C 56 % 0 lf 1012,7 hPa 0,0 l/m 2 min 0 min 556 W/m 12,6 km/h (3 Bft) 91,49 %
31.03.2017 12:00 20,9 C 25,0 C 25,0 C 55 % 0 lf 1012,7 hPa 0,0 l/m 2 min 0 min 474 W/m 14,6 km/h (3 Bft) 95,74 %
31.03.2017 12:02 21,0 C 26,1 C 25,0 C 56 % 0 lf 1012,7 hPa 0,0 l/m 2 min 0 min 493 W/m 16,7 km/h (3 Bft) 95,74 %
31.03.2017 12:04 21,0 C 25,6 C 25,6 C 55 % 0 lf 1012,7 hPa 0,0 l/m 2 min 0 min 583 W/m 16,7 km/h (3 Bft) 93,48 %
31.03.2017 12:06 21,1 C 26,7 C 25,6 C 55 % 0 lf 1012,7 hPa 0,0 l/m 2 min 0 min 612 W/m 16,7 km/h (3 Bft) 91,49 %
31.03.2017 12:10 21,2 C 28,3 C 25,6 C 55 % 0 lf 1012,5 hPa 0,0 l/m 2 min 0 min 625 W/m 16,7 km/h (3 Bft) 95,70 %
31.03.2017 12:12 21,3 C 27,2 C 26,1 C 54 % 0 lf 1012,5 hPa 0,0 l/m 2 min 0 min 659 W/m 16,7 km/h (3 Bft) 91,49 %
31.03.2017 12:14 21,4 C 27,8 C 26,1 C 55 % 0 lf 1012,4 hPa 0,0 l/m 2 min 0 min 661 W/m 14,6 km/h (3 Bft) 95,74 %
31.03.2017 12:16 21,5 C 27,2 C 26,1 C 55 % 0 lf 1012,4 hPa 0,0 l/m 2 min 0 min 624 W/m 14,6 km/h (3 Bft) 91,30 %
31.03.2017 12:18 21,6 C 27,2 C 25,6 C 54 % 0 lf 1012,3 hPa 0,0 l/m 2 min 0 min 625 W/m 14,6 km/h (3 Bft) 95,74 %
31.03.2017 12:20 21,7 C 26,7 C 25,6 C 53 % 0 lf 1012,3 hPa 0,0 l/m 2 min 0 min 646 W/m 14,6 km/h (3 Bft) 95,74 %
31.03.2017 12:22 21,8 C 26,7 C 25,0 C 53 % 0 lf 1012,3 hPa 0,0 l/m 2 min 0 min 636 W/m 20,9 km/h (4 Bft) 94,55 %
31.03.2017 12:24 21,8 C 28,3 C 24,4 C 52 % 0 lf 1012,3 hPa 0,0 l/m 2 min 0 min 602 W/m 16,7 km/h (3 Bft) 93,62 %
31.03.2017 12:26 21,9 C 27,8 C 23,9 C 52 % 0 lf 1012,3 hPa 0,0 l/m 2 min 0 min 572 W/m 16,7 km/h (3 Bft) 93,62 %
31.03.2017 12:28 21,9 C 27,8 C 23,3 C 53 % 0 lf 1012,2 hPa 0,0 l/m 2 min 0 min 517 W/m 14,6 km/h (3 Bft) 97,87 %
31.03.2017 12:30 22,0 C 27,2 C 23,3 C 53 % 0 lf 1012,2 hPa 0,0 l/m 2 min 0 min 658 W/m 18,8 km/h (3 Bft) 95,65 %
31.03.2017 12:32 22,1 C 27,2 C 23,9 C 53 % 0 lf 1012,2 hPa 0,0 l/m 2 min 0 min 694 W/m 20,9 km/h (4 Bft) 95,74 %
31.03.2017 12:34 22,2 C 27,2 C 23,3 C 52 % 0 lf 1012,3 hPa 0,0 l/m 2 min 0 min 688 W/m 27,2 km/h (4 Bft) 97,87 %
31.03.2017 12:36 22,3 C 26,7 C 23,9 C 51 % 0 lf 1012,3 hPa 0,0 l/m 2 min 0 min 687 W/m 20,9 km/h (4 Bft) 100,00 %
31.03.2017 12:38 22,3 C 28,9 C 23,3 C 53 % 0 lf 1012,2 hPa 0,0 l/m 2 min 0 min 667 W/m 12,6 km/h (3 Bft) 97,87 %
31.03.2017 12:40 22,4 C 29,4 C 23,9 C 53 % 0 lf 1012,2 hPa 0,0 l/m 2 min 0 min 611 W/m 10,5 km/h (2 Bft) 95,74 %
31.03.2017 12:42 22,5 C 28,9 C 23,9 C 51 % 0 lf 1012,2 hPa 0,0 l/m 2 min 0 min 589 W/m 16,7 km/h (3 Bft) 93,48 %
31.03.2017 12:44 22,6 C 28,3 C 23,3 C 51 % 0 lf 1012,2 hPa 0,0 l/m 2 min 0 min 612 W/m 16,7 km/h (3 Bft) 95,74 %
31.03.2017 12:46 22,7 C 28,9 C 23,9 C 51 % 0 lf 1012,1 hPa 0,0 l/m 2 min 0 min 650 W/m 12,6 km/h (3 Bft) 95,74 %
31.03.2017 12:48 22,8 C 28,9 C 24,4 C 50 % 0 lf 1012,0 hPa 0,0 l/m 2 min 0 min 685 W/m 14,6 km/h (3 Bft) 97,87 %
31.03.2017 12:50 22,9 C 28,9 C 25,0 C 50 % 0 lf 1011,9 hPa 0,0 l/m 2 min 0 min 701 W/m 12,6 km/h (3 Bft) 97,87 %
31.03.2017 12:52 22,9 C 30,0 C 25,0 C 51 % 0 lf 1011,9 hPa 0,0 l/m 2 min 0 min 689 W/m 16,7 km/h (3 Bft) 97,96 %
31.03.2017 12:54 23,1 C 27,8 C 25,6 C 50 % 0 lf 1011,9 hPa 0,0 l/m 2 min 0 min 624 W/m 16,7 km/h (3 Bft) 95,74 %
31.03.2017 12:56 23,1 C 27,8 C 25,6 C 50 % 0 lf 1011,9 hPa 0,0 l/m 2 min 0 min 622 W/m 18,8 km/h (3 Bft) 97,87 %
31.03.2017 12:58 23,2 C 26,7 C 25,0 C 49 % 0 lf 1011,9 hPa 0,0 l/m 2 min 0 min 651 W/m 27,2 km/h (4 Bft) 95,74 %
31.03.2017 13:00 23,2 C 28,3 C 24,4 C 50 % 0 lf 1011,9 hPa 0,0 l/m 2 min 0 min 694 W/m 18,8 km/h (3 Bft) 95,74 %
31.03.2017 13:02 23,2 C 29,4 C 24,4 C 50 % 0 lf 1011,9 hPa 0,0 l/m 2 min 0 min 688 W/m 16,7 km/h (3 Bft) 95,74 %
31.03.2017 13:04 23,3 C 30,0 C 23,9 C 49 % 0 lf 1011,9 hPa 0,0 l/m 2 min 0 min 703 W/m 12,6 km/h (3 Bft) 97,83 %
31.03.2017 13:06 23,3 C 30,0 C 23,3 C 49 % 0 lf 1011,9 hPa 0,0 l/m 2 min 0 min 685 W/m 16,7 km/h (3 Bft) 97,87 %
31.03.2017 13:08 23,4 C 29,4 C 23,3 C 50 % 0 lf 1011,8 hPa 0,0 l/m 2 min 0 min 624 W/m 20,9 km/h (4 Bft) 97,87 %
31.03.2017 13:10 23,4 C 28,9 C 23,3 C 50 % 0 lf 1011,8 hPa 0,0 l/m 2 min 0 min 654 W/m 18,8 km/h (3 Bft) 97,87 %
31.03.2017 13:12 23,5 C 28,9 C 23,3 C 49 % 0 lf 1011,9 hPa 0,0 l/m 2 min 0 min 711 W/m 18,8 km/h (3 Bft) 95,74 %
31.03.2017 13:14 23,5 C 27,2 C 23,3 C 48 % 0 lf 1011,8 hPa 0,0 l/m 2 min 0 min 635 W/m 18,8 km/h (3 Bft) 97,87 %
31.03.2017 13:16 23,6 C 30,0 C 22,8 C 49 % 0 lf 1011,8 hPa 0,0 l/m 2 min 0 min 630 W/m 14,6 km/h (3 Bft) 97,83 %
31.03.2017 13:18 23,6 C 30,0 C 22,8 C 49 % 0 lf 1011,8 hPa 0,0 l/m 2 min 0 min 673 W/m 16,7 km/h (3 Bft) 100,00 %
31.03.2017 13:20 23,7 C 27,8 C 22,8 C 49 % 0 lf 1011,7 hPa 0,0 l/m 2 min 0 min 599 W/m 18,8 km/h (3 Bft) 100,00 %
31.03.2017 13:22 23,7 C 30,0 C 22,8 C 50 % 0 lf 1011,7 hPa 0,0 l/m 2 min 0 min 669 W/m 10,5 km/h (2 Bft) 100,00 %
31.03.2017 13:24 23,7 C 31,1 C 23,3 C 50 % 0 lf 1011,7 hPa 0,0 l/m 2 min 0 min 666 W/m 16,7 km/h (3 Bft) 97,87 %
31.03.2017 13:26 23,8 C 30,0 C 23,3 C 49 % 0 lf 1011,7 hPa 0,0 l/m 2 min 0 min 666 W/m 20,9 km/h (4 Bft) 97,87 %
31.03.2017 13:28 23,8 C 30,6 C 22,8 C 48 % 0 lf 1011,7 hPa 0,0 l/m 2 min 0 min 686 W/m 18,8 km/h (3 Bft) 97,83 %
31.03.2017 13:30 23,9 C 31,7 C 22,8 C 48 % 0 lf 1011,6 hPa 0,0 l/m 2 min 0 min 694 W/m 14,6 km/h (3 Bft) 97,87 %
31.03.2017 13:32 23,9 C 31,7 C 22,8 C 49 % 0 lf 1011,6 hPa 0,0 l/m 2 min 0 min 662 W/m 16,7 km/h (3 Bft) 97,87 %
31.03.2017 13:34 24,0 C 31,7 C 22,8 C 48 % 0 lf 1011,6 hPa 0,0 l/m 2 min 0 min 650 W/m 12,6 km/h (3 Bft) 97,87 %
31.03.2017 13:36 24,1 C 31,1 C 23,3 C 47 % 0 lf 1011,6 hPa 0,0 l/m 2 min 0 min 671 W/m 16,7 km/h (3 Bft) 97,87 %
31.03.2017 13:38 24,1 C 31,7 C 22,8 C 46 % 0 lf 1011,5 hPa 0,0 l/m 2 min 0 min 713 W/m 16,7 km/h (3 Bft) 97,87 %
31.03.2017 13:40 24,1 C 31,1 C 22,8 C 47 % 0 lf 1011,5 hPa 0,0 l/m 2 min 0 min 724 W/m 23,0 km/h (4 Bft) 95,65 %
31.03.2017 13:42 24,1 C 29,4 C 22,8 C 46 % 0 lf 1011,5 hPa 0,0 l/m 2 min 0 min 702 W/m 23,0 km/h (4 Bft) 95,74 %
31.03.2017 13:44 24,2 C 29,4 C 22,8 C 47 % 0 lf 1011,5 hPa 0,0 l/m 2 min 0 min 685 W/m 20,9 km/h (4 Bft) 95,74 %
31.03.2017 13:46 24,2 C 30,6 C 22,8 C 47 % 0 lf 1011,5 hPa 0,0 l/m 2 min 0 min 663 W/m 18,8 km/h (3 Bft) 97,87 %
31.03.2017 13:48 24,2 C 30,0 C 22,8 C 46 % 0 lf 1011,4 hPa 0,0 l/m 2 min 0 min 675 W/m 16,7 km/h (3 Bft) 97,87 %
31.03.2017 13:50 24,2 C 31,1 C 23,3 C 47 % 0 lf 1011,4 hPa 0,0 l/m 2 min 0 min 733 W/m 14,6 km/h (3 Bft) 97,83 %
31.03.2017 13:52 24,3 C 31,1 C 22,8 C 46 % 0 lf 1011,4 hPa 0,0 l/m 2 min 0 min 697 W/m 16,7 km/h (3 Bft) 93,62 %
31.03.2017 13:54 24,3 C 28,9 C 23,3 C 46 % 0 lf 1011,5 hPa 0,0 l/m 2 min 0 min 692 W/m 25,1 km/h (4 Bft) 95,74 %
31.03.2017 13:56 24,3 C 30,0 C 22,8 C 46 % 0 lf 1011,4 hPa 0,0 l/m 2 min 0 min 692 W/m 20,9 km/h (4 Bft) 97,87 %
31.03.2017 13:58 24,3 C 30,6 C 22,8 C 46 % 0 lf 1011,4 hPa 0,0 l/m 2 min 0 min 666 W/m 18,8 km/h (3 Bft) 93,62 %
31.03.2017 14:00 24,3 C 31,1 C 22,8 C 47 % 0 lf 1011,4 hPa 0,0 l/m 2 min 0 min 663 W/m 20,9 km/h (4 Bft) 95,74 %
31.03.2017 14:02 24,3 C 30,6 C 22,8 C 46 % 0 lf 1011,4 hPa 0,0 l/m 2 min 0 min 629 W/m 27,2 km/h (4 Bft) 93,48 %
31.03.2017 14:04 24,3 C 29,4 C 22,8 C 46 % 0 lf 1011,4 hPa 0,0 l/m 2 min 0 min 658 W/m 18,8 km/h (3 Bft) 97,87 %
31.03.2017 14:06 24,3 C 30,0 C 22,8 C 46 % 0 lf 1011,4 hPa 0,0 l/m 2 min 0 min 643 W/m 20,9 km/h (4 Bft) 95,74 %
31.03.2017 14:08 24,4 C 30,0 C 23,3 C 45 % 0 lf 1011,4 hPa 0,0 l/m 2 min 0 min 660 W/m 18,8 km/h (3 Bft) 97,87 %
31.03.2017 14:10 24,4 C 30,0 C 23,3 C 45 % 0 lf 1011,4 hPa 0,0 l/m 2 min 0 min 677 W/m 20,9 km/h (4 Bft) 93,62 %
31.03.2017 14:12 24,4 C 29,4 C 23,3 C 45 % 0 lf 1011,4 hPa 0,0 l/m 2 min 0 min 709 W/m 31,4 km/h (5 Bft) 95,74 %
31.03.2017 14:14 24,4 C 29,4 C 22,8 C 45 % 0 lf 1011,4 hPa 0,0 l/m 2 min 0 min 662 W/m 20,9 km/h (4 Bft) 97,83 %
31.03.2017 14:16 24,4 C 28,9 C 22,8 C 45 % 0 lf 1011,4 hPa 0,0 l/m 2 min 0 min 661 W/m 35,6 km/h (5 Bft) 100,00 %
31.03.2017 14:18 24,4 C 28,9 C 22,8 C 46 % 0 lf 1011,4 hPa 0,0 l/m 2 min 0 min 692 W/m 20,9 km/h (4 Bft) 100,00 %
31.03.2017 14:20 24,4 C 30,6 C 22,8 C 46 % 0 lf 1011,4 hPa 0,0 l/m 2 min 0 min 639 W/m 18,8 km/h (3 Bft) 95,74 %
31.03.2017 14:22 24,4 C 30,6 C 22,8 C 47 % 0 lf 1011,4 hPa 0,0 l/m 2 min 0 min 603 W/m 20,9 km/h (4 Bft) 97,87 %
31.03.2017 14:24 24,3 C 28,3 C 22,8 C 46 % 0 lf 1011,4 hPa 0,0 l/m 2 min 0 min 525 W/m 27,2 km/h (4 Bft) 100,00 %
31.03.2017 14:26 24,3 C 27,8 C 22,8 C 46 % 0 lf 1011,5 hPa 0,0 l/m 2 min 0 min 555 W/m 29,3 km/h (5 Bft) 97,83 %
31.03.2017 14:28 24,2 C 28,3 C 22,8 C 46 % 0 lf 1011,4 hPa 0,0 l/m 2 min 0 min 535 W/m 23,0 km/h (4 Bft) 95,74 %
31.03.2017 14:30 24,2 C 28,9 C 22,8 C 46 % 0 lf 1011,4 hPa 0,0 l/m 2 min 0 min 595 W/m 14,6 km/h (3 Bft) 100,00 %
31.03.2017 14:32 24,2 C 28,3 C 22,8 C 47 % 0 lf 1011,3 hPa 0,0 l/m 2 min 0 min 581 W/m 31,4 km/h (5 Bft) 97,87 %
31.03.2017 14:34 24,2 C 27,8 C 22,8 C 47 % 0 lf 1011,3 hPa 0,0 l/m 2 min 0 min 508 W/m 29,3 km/h (5 Bft) 97,87 %
31.03.2017 14:36 24,1 C 26,7 C 22,8 C 46 % 0 lf 1011,2 hPa 0,0 l/m 2 min 0 min 548 W/m 27,2 km/h (4 Bft) 97,87 %
31.03.2017 14:38 24,1 C 26,7 C 22,8 C 47 % 0 lf 1011,2 hPa 0,0 l/m 2 min 0 min 514 W/m 20,9 km/h (4 Bft) 95,65 %
31.03.2017 14:40 24,1 C 28,3 C 22,8 C 47 % 0 lf 1011,3 hPa 0,0 l/m 2 min 0 min 578 W/m 16,7 km/h (3 Bft) 100,00 %
31.03.2017 14:42 24,1 C 30,0 C 23,3 C 47 % 0 lf 1011,3 hPa 0,0 l/m 2 min 0 min 614 W/m 18,8 km/h (3 Bft) 97,87 %
31.03.2017 14:44 24,1 C 28,3 C 23,3 C 46 % 0 lf 1011,3 hPa 0,0 l/m 2 min 0 min 562 W/m 20,9 km/h (4 Bft) 95,74 %
31.03.2017 14:46 24,1 C 29,4 C 23,3 C 46 % 0 lf 1011,3 hPa 0,0 l/m 2 min 0 min 561 W/m 23,0 km/h (4 Bft) 100,00 %
31.03.2017 14:48 24,1 C 30,0 C 23,3 C 46 % 0 lf 1011,2 hPa 0,0 l/m 2 min 0 min 545 W/m 18,8 km/h (3 Bft) 95,74 %
31.03.2017 14:50 24,1 C 29,4 C 23,3 C 46 % 0 lf 1011,2 hPa 0,0 l/m 2 min 0 min 559 W/m 23,0 km/h (4 Bft) 93,48 %
31.03.2017 14:52 24,1 C 29,4 C 23,3 C 48 % 0 lf 1011,3 hPa 0,0 l/m 2 min 0 min 592 W/m 20,9 km/h (4 Bft) 95,74 %
31.03.2017 14:54 24,1 C 28,3 C 23,3 C 46 % 0 lf 1011,2 hPa 0,0 l/m 2 min 0 min 513 W/m 31,4 km/h (5 Bft) 97,87 %
31.03.2017 14:56 24,1 C 28,9 C 23,3 C 47 % 0 lf 1011,2 hPa 0,0 l/m 2 min 0 min 535 W/m 16,7 km/h (3 Bft) 91,49 %
31.03.2017 14:58 24,1 C 27,8 C 23,3 C 47 % 0 lf 1011,2 hPa 0,0 l/m 2 min 0 min 531 W/m 23,0 km/h (4 Bft) 91,49 %
31.03.2017 15:00 24,1 C 27,2 C 23,3 C 46 % 0 lf 1011,2 hPa 0,0 l/m 2 min 0 min 522 W/m 25,1 km/h (4 Bft) 93,62 %
31.03.2017 15:02 24,1 C 27,2 C 23,3 C 46 % 0 lf 1011,2 hPa 0,0 l/m 2 min 0 min 560 W/m 25,1 km/h (4 Bft) 84,78 %
31.03.2017 15:04 24,1 C 27,8 C 24,4 C 46 % 0 lf 1011,3 hPa 0,0 l/m 2 min 0 min 608 W/m 20,9 km/h (4 Bft) 93,62 %
31.03.2017 15:06 24,1 C 28,3 C 25,0 C 46 % 0 lf 1011,3 hPa 0,0 l/m 2 min 0 min 587 W/m 27,2 km/h (4 Bft) 93,62 %
31.03.2017 15:08 24,1 C 27,8 C 25,0 C 45 % 0 lf 1011,3 hPa 0,0 l/m 2 min 0 min 605 W/m 29,3 km/h (5 Bft) 91,49 %
31.03.2017 15:10 24,1 C 27,8 C 25,0 C 45 % 0 lf 1011,2 hPa 0,0 l/m 2 min 0 min 619 W/m 25,1 km/h (4 Bft) 93,62 %
31.03.2017 15:12 24,1 C 29,4 C 25,6 C 45 % 0 lf 1011,3 hPa 0,0 l/m 2 min 0 min 604 W/m 23,0 km/h (4 Bft) 91,30 %
31.03.2017 15:14 24,2 C 29,4 C 26,1 C 44 % 0 lf 1011,3 hPa 0,0 l/m 2 min 0 min 628 W/m 23,0 km/h (4 Bft) 93,62 %
31.03.2017 15:16 24,2 C 29,4 C 26,7 C 45 % 0 lf 1011,1 hPa 0,0 l/m 2 min 0 min 655 W/m 20,9 km/h (4 Bft) 93,62 %
31.03.2017 15:18 24,2 C 30,0 C 26,1 C 44 % 0 lf 1011,2 hPa 0,0 l/m 2 min 0 min 661 W/m 23,0 km/h (4 Bft) 93,62 %
31.03.2017 15:20 24,2 C 30,6 C 26,7 C 46 % 0 lf 1011,2 hPa 0,0 l/m 2 min 0 min 618 W/m 16,7 km/h (3 Bft) 93,62 %
31.03.2017 15:22 24,3 C 28,9 C 26,7 C 45 % 0 lf 1011,0 hPa 0,0 l/m 2 min 0 min 606 W/m 16,7 km/h (3 Bft) 93,62 %
31.03.2017 15:24 24,3 C 28,3 C 26,1 C 45 % 0 lf 1011,0 hPa 0,0 l/m 2 min 0 min 571 W/m 12,6 km/h (3 Bft) 95,74 %
31.03.2017 15:26 24,4 C 28,9 C 26,1 C 45 % 0 lf 1011,0 hPa 0,0 l/m 2 min 0 min 395 W/m 20,9 km/h (4 Bft) 95,65 %
31.03.2017 15:28 24,4 C 27,8 C 25,6 C 45 % 0 lf 1011,0 hPa 0,0 l/m 2 min 0 min 401 W/m 33,5 km/h (5 Bft) 93,62 %
31.03.2017 15:30 24,3 C 28,3 C 25,0 C 44 % 0 lf 1011,0 hPa 0,0 l/m 2 min 0 min 438 W/m 20,9 km/h (4 Bft) 95,74 %
31.03.2017 15:32 24,3 C 28,3 C 25,0 C 44 % 0 lf 1010,9 hPa 0,0 l/m 2 min 0 min 489 W/m 27,2 km/h (4 Bft) 93,62 %
31.03.2017 15:34 24,3 C 28,9 C 25,0 C 45 % 0 lf 1010,9 hPa 0,0 l/m 2 min 0 min 530 W/m 18,8 km/h (3 Bft) 91,49 %
31.03.2017 15:36 24,3 C 29,4 C 25,6 C 44 % 0 lf 1010,9 hPa 0,0 l/m 2 min 0 min 604 W/m 31,4 km/h (5 Bft) 95,65 %
31.03.2017 15:38 24,3 C 29,4 C 25,6 C 44 % 0 lf 1010,9 hPa 0,0 l/m 2 min 0 min 648 W/m 25,1 km/h (4 Bft) 95,74 %
31.03.2017 15:40 24,3 C 30,0 C 25,6 C 44 % 0 lf 1010,9 hPa 0,0 l/m 2 min 0 min 589 W/m 20,9 km/h (4 Bft) 93,62 %
31.03.2017 15:42 24,4 C 28,9 C 25,0 C 44 % 0 lf 1010,9 hPa 0,0 l/m 2 min 0 min 561 W/m 18,8 km/h (3 Bft) 93,62 %
31.03.2017 15:44 24,4 C 29,4 C 24,4 C 44 % 0 lf 1010,9 hPa 0,0 l/m 2 min 0 min 546 W/m 29,3 km/h (5 Bft) 97,22 %
31.03.2017 15:46 24,4 C 28,9 C 23,9 C 43 % 0 lf 1010,9 hPa 0,0 l/m 2 min 0 min 481 W/m 20,9 km/h (4 Bft) 95,65 %
31.03.2017 15:48 24,4 C 28,3 C 23,3 C 44 % 0 lf 1010,9 hPa 0,0 l/m 2 min 0 min 436 W/m 20,9 km/h (4 Bft) 97,87 %
31.03.2017 15:50 24,3 C 27,8 C 23,3 C 44 % 0 lf 1010,9 hPa 0,0 l/m 2 min 0 min 424 W/m 23,0 km/h (4 Bft) 93,22 %
31.03.2017 15:52 24,3 C 28,3 C 23,3 C 44 % 0 lf 1010,9 hPa 0,0 l/m 2 min 0 min 451 W/m 23,0 km/h (4 Bft) 94,29 %
31.03.2017 15:54 24,3 C 27,8 C 23,3 C 44 % 0 lf 1010,8 hPa 0,0 l/m 2 min 0 min 332 W/m 16,7 km/h (3 Bft) 100,00 %
31.03.2017 15:56 24,3 C 28,3 C 23,3 C 44 % 0 lf 1010,9 hPa 0,0 l/m 2 min 0 min 342 W/m 18,8 km/h (3 Bft) 97,87 %
31.03.2017 15:58 24,3 C 28,3 C 23,3 C 44 % 0 lf 1010,9 hPa 0,0 l/m 2 min 0 min 419 W/m 14,6 km/h (3 Bft) 97,83 %
31.03.2017 16:00 24,3 C 30,0 C 23,3 C 45 % 0 lf 1010,9 hPa 0,0 l/m 2 min 0 min 587 W/m 14,6 km/h (3 Bft) 95,74 %
31.03.2017 16:02 24,3 C 28,9 C 23,3 C 44 % 0 lf 1010,9 hPa 0,0 l/m 2 min 0 min 647 W/m 25,1 km/h (4 Bft) 95,74 %
31.03.2017 16:04 24,3 C 27,8 C 23,3 C 43 % 0 lf 1010,9 hPa 0,0 l/m 2 min 0 min 433 W/m 27,2 km/h (4 Bft) 95,74 %
31.03.2017 16:06 24,3 C 27,2 C 23,3 C 43 % 0 lf 1010,8 hPa 0,0 l/m 2 min 0 min 288 W/m 18,8 km/h (3 Bft) 95,74 %
31.03.2017 16:08 24,3 C 26,7 C 22,8 C 43 % 0 lf 1010,7 hPa 0,0 l/m 2 min 0 min 319 W/m 27,2 km/h (4 Bft) 93,62 %
31.03.2017 16:10 24,2 C 26,7 C 22,8 C 43 % 0 lf 1010,7 hPa 0,0 l/m 2 min 0 min 299 W/m 23,0 km/h (4 Bft) 97,83 %
31.03.2017 16:12 24,2 C 26,7 C 22,8 C 43 % 0 lf 1010,7 hPa 0,0 l/m 2 min 0 min 317 W/m 20,9 km/h (4 Bft) 95,74 %
31.03.2017 16:14 24,1 C 26,7 C 22,8 C 43 % 0 lf 1010,7 hPa 0,0 l/m 2 min 0 min 331 W/m 23,0 km/h (4 Bft) 97,87 %
31.03.2017 16:16 24,1 C 27,2 C 22,8 C 43 % 0 lf 1010,7 hPa 0,0 l/m 2 min 0 min 339 W/m 20,9 km/h (4 Bft) 97,87 %
31.03.2017 16:18 24,1 C 27,2 C 22,8 C 44 % 0 lf 1010,7 hPa 0,0 l/m 2 min 0 min 356 W/m 20,9 km/h (4 Bft) 97,87 %
31.03.2017 16:20 24,1 C 26,7 C 22,8 C 45 % 0 lf 1010,7 hPa 0,0 l/m 2 min 0 min 330 W/m 20,9 km/h (4 Bft) 95,74 %
31.03.2017 16:22 24,0 C 26,1 C 22,8 C 43 % 0 lf 1010,6 hPa 0,0 l/m 2 min 0 min 272 W/m 20,9 km/h (4 Bft) 97,83 %
31.03.2017 16:24 23,9 C 26,1 C 22,8 C 44 % 0 lf 1010,6 hPa 0,0 l/m 0 min 0 min 252 W/m 25,1 km/h (4 Bft) 93,62 %
31.03.2017 16:26 23,9 C 26,7 C 22,8 C 44 % 0 lf 1010,6 hPa 0,0 l/m 2 min 0 min 299 W/m 14,6 km/h (3 Bft) 93,62 %
31.03.2017 16:28 23,9 C 26,7 C 22,8 C 44 % 0 lf 1010,6 hPa 0,0 l/m 2 min 0 min 311 W/m 20,9 km/h (4 Bft) 93,62 %
31.03.2017 16:30 23,9 C 26,7 C 22,8 C 44 % 0 lf 1010,4 hPa 0,0 l/m 2 min 0 min 279 W/m 14,6 km/h (3 Bft) 97,87 %
31.03.2017 16:32 23,9 C 26,1 C 22,8 C 44 % 0 lf 1010,5 hPa 0,0 l/m 2 min 0 min 275 W/m 23,0 km/h (4 Bft) 97,87 %
31.03.2017 16:34 23,9 C 26,7 C 22,8 C 44 % 0 lf 1010,5 hPa 0,0 l/m 2 min 0 min 306 W/m 20,9 km/h (4 Bft) 95,65 %
31.03.2017 16:36 23,8 C 26,1 C 22,8 C 43 % 0 lf 1010,5 hPa 0,0 l/m 2 min 0 min 316 W/m 31,4 km/h (5 Bft) 95,74 %
31.03.2017 16:38 23,8 C 26,1 C 22,8 C 43 % 0 lf 1010,5 hPa 0,0 l/m 2 min 0 min 274 W/m 20,9 km/h (4 Bft) 95,74 %
31.03.2017 16:40 23,8 C 25,0 C 22,2 C 43 % 0 lf 1010,5 hPa 0,0 l/m 0 min 0 min 146 W/m 23,0 km/h (4 Bft) 95,74 %
31.03.2017 16:42 23,8 C 24,4 C 21,7 C 44 % 0 lf 1010,5 hPa 0,0 l/m 0 min 0 min 143 W/m 27,2 km/h (4 Bft) 93,62 %
31.03.2017 16:44 23,7 C 25,0 C 21,7 C 43 % 0 lf 1010,4 hPa 0,0 l/m 0 min 0 min 166 W/m 29,3 km/h (5 Bft) 95,74 %
31.03.2017 16:46 23,7 C 24,4 C 21,7 C 44 % 0 lf 1010,4 hPa 0,0 l/m 0 min 0 min 172 W/m 25,1 km/h (4 Bft) 97,83 %
31.03.2017 16:48 23,6 C 25,0 C 21,7 C 44 % 0 lf 1010,4 hPa 0,0 l/m 0 min 0 min 175 W/m 18,8 km/h (3 Bft) 97,87 %
31.03.2017 16:50 23,6 C 25,0 C 22,2 C 44 % 0 lf 1010,4 hPa 0,0 l/m 2 min 0 min 317 W/m 25,1 km/h (4 Bft) 100,00 %
31.03.2017 16:52 23,6 C 25,6 C 22,2 C 45 % 0 lf 1010,4 hPa 0,0 l/m 0 min 0 min 185 W/m 14,6 km/h (3 Bft) 100,00 %
31.03.2017 16:54 23,6 C 26,1 C 22,2 C 44 % 0 lf 1010,4 hPa 0,0 l/m 0 min 0 min 216 W/m 18,8 km/h (3 Bft) 95,74 %
31.03.2017 16:56 23,6 C 25,6 C 22,2 C 45 % 0 lf 1010,4 hPa 0,0 l/m 0 min 0 min 192 W/m 14,6 km/h (3 Bft) 97,83 %
31.03.2017 16:58 23,6 C 25,6 C 22,2 C 45 % 0 lf 1010,4 hPa 0,0 l/m 0 min 0 min 197 W/m 20,9 km/h (4 Bft) 97,87 %
31.03.2017 17:00 23,5 C 26,1 C 22,2 C 45 % 0 lf 1010,4 hPa 0,0 l/m 2 min 0 min 300 W/m 25,1 km/h (4 Bft) 95,74 %
31.03.2017 17:02 23,6 C 26,1 C 22,2 C 45 % 0 lf 1010,4 hPa 0,0 l/m 2 min 0 min 454 W/m 20,9 km/h (4 Bft) 97,87 %
31.03.2017 17:04 23,6 C 26,7 C 22,2 C 45 % 0 lf 1010,4 hPa 0,0 l/m 2 min 0 min 388 W/m 16,7 km/h (3 Bft) 97,87 %
31.03.2017 17:06 23,6 C 27,2 C 22,2 C 46 % 0 lf 1010,4 hPa 0,0 l/m 2 min 0 min 408 W/m 14,6 km/h (3 Bft) 95,74 %
31.03.2017 17:08 23,6 C 27,8 C 22,2 C 46 % 0 lf 1010,4 hPa 0,0 l/m 2 min 0 min 389 W/m 23,0 km/h (4 Bft) 100,00 %
31.03.2017 17:10 23,6 C 27,2 C 22,2 C 45 % 0 lf 1010,4 hPa 0,0 l/m 2 min 0 min 368 W/m 27,2 km/h (4 Bft) 97,87 %
31.03.2017 17:12 23,7 C 26,1 C 22,2 C 44 % 0 lf 1010,4 hPa 0,0 l/m 2 min 0 min 226 W/m 25,1 km/h (4 Bft) 97,87 %
31.03.2017 17:14 23,6 C 25,6 C 22,2 C 46 % 0 lf 1010,4 hPa 0,0 l/m 0 min 0 min 153 W/m 23,0 km/h (4 Bft) 97,87 %
31.03.2017 17:16 23,6 C 24,4 C 22,2 C 45 % 0 lf 1010,4 hPa 0,0 l/m 0 min 0 min 158 W/m 23,0 km/h (4 Bft) 97,87 %
31.03.2017 17:18 23,6 C 24,4 C 21,7 C 45 % 0 lf 1010,4 hPa 0,0 l/m 0 min 0 min 176 W/m 25,1 km/h (4 Bft) 93,62 %
31.03.2017 17:20 23,5 C 24,4 C 21,7 C 46 % 0 lf 1010,4 hPa 0,0 l/m 0 min 0 min 170 W/m 27,2 km/h (4 Bft) 97,83 %
31.03.2017 17:22 23,4 C 24,4 C 21,7 C 46 % 0 lf 1010,4 hPa 0,0 l/m 0 min 0 min 150 W/m 23,0 km/h (4 Bft) 97,87 %
31.03.2017 17:24 23,4 C 23,9 C 21,7 C 45 % 0 lf 1010,4 hPa 0,0 l/m 0 min 0 min 144 W/m 23,0 km/h (4 Bft) 97,87 %
31.03.2017 17:26 23,4 C 23,9 C 21,7 C 44 % 0 lf 1010,4 hPa 0,0 l/m 0 min 0 min 143 W/m 23,0 km/h (4 Bft) 97,87 %
31.03.2017 17:28 23,3 C 23,9 C 21,7 C 45 % 0 lf 1010,4 hPa 0,0 l/m 0 min 0 min 149 W/m 27,2 km/h (4 Bft) 97,87 %
31.03.2017 17:30 23,3 C 23,9 C 21,7 C 46 % 0 lf 1010,5 hPa 0,0 l/m 0 min 0 min 154 W/m 20,9 km/h (4 Bft) 95,74 %
31.03.2017 17:32 23,2 C 23,9 C 21,7 C 48 % 0 lf 1010,6 hPa 0,0 l/m 0 min 0 min 153 W/m 31,4 km/h (5 Bft) 97,83 %
31.03.2017 17:34 23,1 C 23,9 C 21,1 C 49 % 0 lf 1010,5 hPa 0,0 l/m 0 min 0 min 179 W/m 31,4 km/h (5 Bft) 97,87 %
31.03.2017 17:36 23,0 C 23,9 C 21,1 C 49 % 0 lf 1010,5 hPa 0,0 l/m 2 min 0 min 216 W/m 20,9 km/h (4 Bft) 100,00 %
31.03.2017 17:38 22,9 C 23,9 C 21,1 C 49 % 0 lf 1010,7 hPa 0,0 l/m 2 min 0 min 203 W/m 23,0 km/h (4 Bft) 100,00 %
31.03.2017 17:40 22,7 C 23,9 C 20,6 C 50 % 0 lf 1010,8 hPa 0,0 l/m 2 min 0 min 182 W/m 33,5 km/h (5 Bft) 100,00 %
31.03.2017 17:42 22,6 C 23,3 C 20,6 C 50 % 0 lf 1010,8 hPa 0,0 l/m 2 min 0 min 187 W/m 31,4 km/h (5 Bft) 97,87 %
31.03.2017 17:44 22,5 C 23,9 C 20,6 C 50 % 0 lf 1010,7 hPa 0,0 l/m 2 min 0 min 200 W/m 23,0 km/h (4 Bft) 100,00 %
31.03.2017 17:46 22,4 C 23,9 C 20,6 C 50 % 0 lf 1010,8 hPa 0,0 l/m 2 min 0 min 181 W/m 25,1 km/h (4 Bft) 97,87 %
31.03.2017 17:48 22,3 C 23,3 C 20,0 C 51 % 0 lf 1010,9 hPa 0,0 l/m 0 min 0 min 143 W/m 31,4 km/h (5 Bft) 97,87 %
31.03.2017 17:50 22,2 C 23,3 C 20,0 C 51 % 0 lf 1010,9 hPa 0,0 l/m 2 min 0 min 180 W/m 23,0 km/h (4 Bft) 100,00 %
31.03.2017 17:52 22,1 C 22,8 C 20,0 C 52 % 0 lf 1010,8 hPa 0,0 l/m 0 min 0 min 149 W/m 25,1 km/h (4 Bft) 100,00 %
31.03.2017 17:54 21,9 C 22,8 C 19,4 C 52 % 0 lf 1010,8 hPa 0,0 l/m 0 min 0 min 143 W/m 29,3 km/h (5 Bft) 95,74 %
31.03.2017 17:56 21,8 C 22,8 C 19,4 C 51 % 0 lf 1010,9 hPa 0,0 l/m 0 min 0 min 147 W/m 23,0 km/h (4 Bft) 100,00 %
31.03.2017 17:58 21,7 C 22,2 C 19,4 C 52 % 0 lf 1010,8 hPa 0,0 l/m 0 min 0 min 122 W/m 18,8 km/h (3 Bft) 95,74 %
31.03.2017 18:00 21,6 C 21,7 C 19,4 C 52 % 0 lf 1010,8 hPa 0,0 l/m 0 min 0 min 119 W/m 23,0 km/h (4 Bft) 100,00 %
31.03.2017 18:02 21,5 C 21,7 C 19,4 C 52 % 0 lf 1010,8 hPa 0,0 l/m 0 min 0 min 109 W/m 18,8 km/h (3 Bft) 100,00 %
31.03.2017 18:04 21,4 C 21,7 C 19,4 C 53 % 0 lf 1010,9 hPa 0,0 l/m 0 min 0 min 99 W/m 23,0 km/h (4 Bft) 100,00 %
31.03.2017 18:06 21,3 C 21,1 C 18,9 C 53 % 0 lf 1010,9 hPa 0,0 l/m 0 min 0 min 90 W/m 16,7 km/h (3 Bft) 97,87 %
31.03.2017 18:10 21,1 C 21,7 C 18,9 C 53 % 0 lf 1010,9 hPa 0,0 l/m 0 min 0 min 107 W/m 18,8 km/h (3 Bft) 94,62 %
31.03.2017 18:12 21,1 C 21,7 C 18,9 C 54 % 0 lf 1010,9 hPa 0,0 l/m 0 min 0 min 132 W/m 16,7 km/h (3 Bft) 93,62 %
31.03.2017 18:14 21,0 C 21,7 C 18,9 C 54 % 0 lf 1010,9 hPa 0,0 l/m 0 min 0 min 110 W/m 16,7 km/h (3 Bft) 95,74 %
31.03.2017 18:16 20,9 C 21,1 C 18,9 C 54 % 0 lf 1010,9 hPa 0,0 l/m 0 min 0 min 96 W/m 18,8 km/h (3 Bft) 91,49 %
31.03.2017 18:18 20,9 C 21,1 C 18,9 C 53 % 0 lf 1011,0 hPa 0,0 l/m 0 min 0 min 95 W/m 20,9 km/h (4 Bft) 95,74 %
31.03.2017 18:20 20,8 C 21,1 C 18,9 C 54 % 0 lf 1011,0 hPa 0,0 l/m 0 min 0 min 102 W/m 23,0 km/h (4 Bft) 95,65 %
31.03.2017 18:22 20,8 C 21,1 C 18,9 C 54 % 0 lf 1011,0 hPa 0,0 l/m 0 min 0 min 129 W/m 16,7 km/h (3 Bft) 95,74 %
31.03.2017 18:24 20,7 C 21,1 C 18,9 C 54 % 0 lf 1010,9 hPa 0,0 l/m 0 min 0 min 120 W/m 16,7 km/h (3 Bft) 93,62 %
31.03.2017 18:26 20,7 C 21,1 C 18,9 C 54 % 0 lf 1011,0 hPa 0,0 l/m 0 min 0 min 86 W/m 20,9 km/h (4 Bft) 93,62 %
31.03.2017 18:28 20,6 C 21,1 C 18,9 C 54 % 0 lf 1011,0 hPa 0,0 l/m 0 min 0 min 96 W/m 18,8 km/h (3 Bft) 93,62 %
31.03.2017 18:30 20,6 C 21,1 C 18,9 C 54 % 0 lf 1011,0 hPa 0,0 l/m 0 min 0 min 117 W/m 18,8 km/h (3 Bft) 95,74 %
31.03.2017 18:32 20,6 C 21,1 C 18,9 C 55 % 0 lf 1011,0 hPa 0,0 l/m 2 min 0 min 122 W/m 18,8 km/h (3 Bft) 97,83 %
31.03.2017 18:34 20,5 C 21,1 C 18,9 C 55 % 0 lf 1011,0 hPa 0,0 l/m 2 min 0 min 117 W/m 14,6 km/h (3 Bft) 89,36 %
31.03.2017 18:36 20,5 C 21,1 C 18,9 C 55 % 0 lf 1011,0 hPa 0,0 l/m 2 min 0 min 122 W/m 18,8 km/h (3 Bft) 95,74 %
31.03.2017 18:38 20,5 C 21,1 C 18,9 C 55 % 0 lf 1011,0 hPa 0,0 l/m 2 min 0 min 126 W/m 16,7 km/h (3 Bft) 93,62 %
31.03.2017 18:40 20,4 C 21,1 C 18,9 C 55 % 0 lf 1011,0 hPa 0,0 l/m 2 min 0 min 121 W/m 18,8 km/h (3 Bft) 91,49 %
31.03.2017 18:42 20,4 C 20,6 C 18,9 C 55 % 0 lf 1011,1 hPa 0,0 l/m 2 min 0 min 115 W/m 25,1 km/h (4 Bft) 93,62 %
31.03.2017 18:44 20,4 C 20,6 C 18,9 C 54 % 0 lf 1011,0 hPa 0,0 l/m 2 min 0 min 105 W/m 27,2 km/h (4 Bft) 93,48 %
31.03.2017 18:46 20,3 C 20,6 C 18,9 C 54 % 0 lf 1011,0 hPa 0,0 l/m 0 min 0 min 99 W/m 18,8 km/h (3 Bft) 89,36 %
31.03.2017 18:48 20,3 C 20,6 C 18,9 C 55 % 0 lf 1011,1 hPa 0,0 l/m 2 min 0 min 97 W/m 10,5 km/h (2 Bft) 93,62 %
31.03.2017 18:50 20,3 C 20,6 C 18,3 C 55 % 0 lf 1011,1 hPa 0,0 l/m 2 min 0 min 94 W/m 23,0 km/h (4 Bft) 93,62 %
31.03.2017 18:52 20,3 C 20,6 C 18,3 C 55 % 0 lf 1011,0 hPa 0,0 l/m 2 min 0 min 94 W/m 23,0 km/h (4 Bft) 93,62 %
31.03.2017 18:54 20,2 C 20,6 C 18,3 C 55 % 0 lf 1011,1 hPa 0,0 l/m 2 min 0 min 92 W/m 23,0 km/h (4 Bft) 89,36 %
31.03.2017 18:56 20,2 C 20,6 C 18,3 C 56 % 0 lf 1011,1 hPa 0,0 l/m 2 min 0 min 90 W/m 20,9 km/h (4 Bft) 86,96 %
31.03.2017 18:58 20,1 C 20,0 C 18,3 C 56 % 0 lf 1011,1 hPa 0,0 l/m 2 min 0 min 84 W/m 18,8 km/h (3 Bft) 93,62 %
31.03.2017 19:00 20,1 C 20,0 C 17,8 C 56 % 0 lf 1011,1 hPa 0,0 l/m 0 min 0 min 76 W/m 23,0 km/h (4 Bft) 93,62 %
31.03.2017 19:02 20,0 C 20,0 C 17,8 C 57 % 0 lf 1011,1 hPa 0,0 l/m 0 min 0 min 72 W/m 14,6 km/h (3 Bft) 91,49 %
31.03.2017 19:04 19,9 C 19,4 C 17,8 C 57 % 0 lf 1011,2 hPa 0,0 l/m 0 min 0 min 64 W/m 31,4 km/h (5 Bft) 91,49 %
31.03.2017 19:06 19,8 C 19,4 C 17,2 C 57 % 0 lf 1011,2 hPa 0,0 l/m 0 min 0 min 60 W/m 27,2 km/h (4 Bft) 95,65 %
31.03.2017 19:08 19,7 C 18,9 C 17,2 C 58 % 0 lf 1011,2 hPa 0,0 l/m 0 min 0 min 57 W/m 25,1 km/h (4 Bft) 95,74 %
31.03.2017 19:10 19,6 C 18,9 C 17,2 C 58 % 0 lf 1011,3 hPa 0,0 l/m 0 min 0 min 53 W/m 29,3 km/h (5 Bft) 95,74 %
31.03.2017 19:12 19,4 C 18,9 C 16,7 C 58 % 0 lf 1011,3 hPa 0,0 l/m 0 min 0 min 48 W/m 25,1 km/h (4 Bft) 93,62 %
31.03.2017 19:14 19,4 C 18,9 C 16,7 C 58 % 0 lf 1011,2 hPa 0,0 l/m 0 min 0 min 46 W/m 16,7 km/h (3 Bft) 91,49 %
31.03.2017 19:16 19,3 C 18,9 C 16,7 C 59 % 0 lf 1011,3 hPa 0,0 l/m 0 min 0 min 46 W/m 20,9 km/h (4 Bft) 91,49 %
31.03.2017 19:18 19,2 C 18,9 C 16,7 C 59 % 0 lf 1011,3 hPa 0,0 l/m 0 min 0 min 45 W/m 29,3 km/h (5 Bft) 97,83 %
31.03.2017 19:20 19,1 C 18,3 C 16,7 C 59 % 0 lf 1011,2 hPa 0,0 l/m 0 min 0 min 42 W/m 23,0 km/h (4 Bft) 95,74 %
31.03.2017 19:22 19,0 C 18,3 C 16,7 C 60 % 0 lf 1011,3 hPa 0,0 l/m 0 min 0 min 40 W/m 23,0 km/h (4 Bft) 97,87 %
31.03.2017 19:24 18,9 C 18,3 C 16,7 C 60 % 0 lf 1011,3 hPa 0,0 l/m 0 min 0 min 38 W/m 14,6 km/h (3 Bft) 93,62 %
31.03.2017 19:26 18,9 C 18,3 C 16,7 C 60 % 0 lf 1011,4 hPa 0,0 l/m 0 min 0 min 37 W/m 20,9 km/h (4 Bft) 93,62 %
31.03.2017 19:28 18,8 C 18,3 C 16,7 C 61 % 0 lf 1011,4 hPa 0,0 l/m 0 min 0 min 34 W/m 18,8 km/h (3 Bft) 97,87 %
31.03.2017 19:30 18,7 C 18,3 C 16,1 C 61 % 0 lf 1011,4 hPa 0,0 l/m 0 min 0 min 32 W/m 18,8 km/h (3 Bft) 95,65 %
31.03.2017 19:32 18,6 C 18,3 C 16,1 C 61 % 0 lf 1011,5 hPa 0,0 l/m 0 min 0 min 31 W/m 27,2 km/h (4 Bft) 93,62 %
31.03.2017 19:34 18,6 C 17,8 C 16,1 C 62 % 0 lf 1011,5 hPa 0,0 l/m 0 min 0 min 30 W/m 23,0 km/h (4 Bft) 95,74 %
31.03.2017 19:36 18,4 C 17,8 C 16,1 C 62 % 0 lf 1011,4 hPa 0,0 l/m 0 min 0 min 30 W/m 16,7 km/h (3 Bft) 97,87 %
31.03.2017 19:38 18,3 C 17,8 C 16,1 C 62 % 0 lf 1011,4 hPa 0,0 l/m 0 min 0 min 29 W/m 20,9 km/h (4 Bft) 100,00 %
31.03.2017 19:40 18,3 C 17,8 C 16,1 C 62 % 0 lf 1011,5 hPa 0,0 l/m 0 min 0 min 27 W/m 23,0 km/h (4 Bft) 100,00 %
31.03.2017 19:42 18,2 C 17,8 C 15,6 C 63 % 0 lf 1011,5 hPa 0,0 l/m 0 min 0 min 14 W/m 23,0 km/h (4 Bft) 100,00 %
31.03.2017 19:44 18,1 C 17,8 C 15,6 C 63 % 0 lf 1011,5 hPa 0,0 l/m 0 min 0 min 12 W/m 18,8 km/h (3 Bft) 100,00 %
31.03.2017 19:46 18,1 C 17,8 C 15,6 C 63 % 0 lf 1011,5 hPa 0,0 l/m 0 min 0 min 11 W/m 27,2 km/h (4 Bft) 100,00 %
31.03.2017 19:48 18,0 C 17,2 C 15,6 C 63 % 0 lf 1011,5 hPa 0,0 l/m 0 min 0 min 8 W/m 27,2 km/h (4 Bft) 97,87 %
31.03.2017 19:50 17,9 C 17,2 C 15,6 C 64 % 0 lf 1011,4 hPa 0,0 l/m 0 min 0 min 6 W/m 18,8 km/h (3 Bft) 100,00 %
31.03.2017 19:52 17,9 C 17,2 C 15,6 C 64 % 0 lf 1011,4 hPa 0,0 l/m 0 min 0 min 5 W/m 27,2 km/h (4 Bft) 97,83 %
31.03.2017 19:54 17,8 C 17,2 C 15,6 C 64 % 0 lf 1011,5 hPa 0,0 l/m 0 min 0 min 5 W/m 10,5 km/h (2 Bft) 100,00 %
31.03.2017 19:56 17,8 C 17,2 C 15,0 C 64 % 0 lf 1011,6 hPa 0,0 l/m 0 min 0 min 5 W/m 16,7 km/h (3 Bft) 100,00 %
31.03.2017 19:58 17,7 C 17,2 C 15,0 C 65 % 0 lf 1011,5 hPa 0,0 l/m 0 min 0 min 2 W/m 23,0 km/h (4 Bft) 100,00 %
31.03.2017 20:00 17,7 C 17,2 C 15,0 C 65 % 0 lf 1011,6 hPa 0,0 l/m 0 min 0 min 1 W/m 23,0 km/h (4 Bft) 97,87 %
31.03.2017 20:02 17,6 C 17,2 C 15,0 C 65 % 0 lf 1011,5 hPa 0,0 l/m 0 min 0 min 0 W/m 20,9 km/h (4 Bft) 100,00 %
31.03.2017 20:04 17,6 C 17,2 C 15,0 C 65 % 0 lf 1011,5 hPa 0,0 l/m 0 min 0 min 0 W/m 14,6 km/h (3 Bft) 97,83 %
31.03.2017 20:06 17,5 C 16,7 C 15,0 C 65 % 0 lf 1011,6 hPa 0,0 l/m 0 min 0 min 0 W/m 12,6 km/h (3 Bft) 97,87 %
31.03.2017 20:08 17,4 C 16,7 C 15,0 C 66 % 0 lf 1011,5 hPa 0,0 l/m 0 min 0 min 0 W/m 12,6 km/h (3 Bft) 100,00 %
31.03.2017 20:10 17,4 C 16,7 C 15,0 C 65 % 0 lf 1011,5 hPa 0,0 l/m 0 min 0 min 0 W/m 14,6 km/h (3 Bft) 100,00 %
31.03.2017 20:12 17,4 C 16,7 C 15,0 C 66 % 0 lf 1011,6 hPa 0,0 l/m 0 min 0 min 0 W/m 14,6 km/h (3 Bft) 95,74 %
31.03.2017 20:14 17,4 C 16,7 C 15,0 C 66 % 0 lf 1011,6 hPa 0,0 l/m 0 min 0 min 2 W/m 16,7 km/h (3 Bft) 100,00 %
31.03.2017 20:16 17,3 C 16,7 C 15,0 C 66 % 0 lf 1011,6 hPa 0,0 l/m 0 min 0 min 0 W/m 25,1 km/h (4 Bft) 100,00 %
31.03.2017 20:18 17,3 C 16,7 C 15,0 C 66 % 0 lf 1011,6 hPa 0,0 l/m 0 min 0 min 0 W/m 8,4 km/h (2 Bft) 95,74 %
31.03.2017 20:20 17,3 C 16,7 C 15,0 C 66 % 0 lf 1011,6 hPa 0,0 l/m 0 min 0 min 0 W/m 12,6 km/h (3 Bft) 97,87 %
31.03.2017 20:22 17,2 C 16,7 C 15,0 C 67 % 0 lf 1011,6 hPa 0,0 l/m 0 min 0 min 0 W/m 20,9 km/h (4 Bft) 95,74 %
31.03.2017 20:24 17,2 C 16,7 C 15,0 C 67 % 0 lf 1011,6 hPa 0,0 l/m 0 min 0 min 1 W/m 18,8 km/h (3 Bft) 97,87 %
31.03.2017 20:26 17,2 C 16,7 C 15,0 C 67 % 0 lf 1011,6 hPa 0,0 l/m 0 min 0 min 2 W/m 16,7 km/h (3 Bft) 97,87 %
31.03.2017 20:28 17,1 C 16,7 C 15,0 C 67 % 0 lf 1011,6 hPa 0,0 l/m 0 min 0 min 2 W/m 20,9 km/h (4 Bft) 97,83 %
31.03.2017 20:30 17,1 C 16,7 C 15,0 C 67 % 0 lf 1011,6 hPa 0,0 l/m 0 min 0 min 1 W/m 16,7 km/h (3 Bft) 100,00 %
31.03.2017 20:32 17,1 C 16,7 C 15,0 C 67 % 0 lf 1011,6 hPa 0,0 l/m 0 min 0 min 0 W/m 20,9 km/h (4 Bft) 95,74 %
31.03.2017 20:34 17,0 C 16,7 C 15,0 C 67 % 0 lf 1011,7 hPa 0,0 l/m 0 min 0 min 0 W/m 18,8 km/h (3 Bft) 100,00 %
31.03.2017 20:36 17,0 C 16,7 C 15,0 C 68 % 0 lf 1011,6 hPa 0,0 l/m 0 min 0 min 0 W/m 18,8 km/h (3 Bft) 100,00 %
31.03.2017 20:38 16,9 C 16,7 C 15,0 C 68 % 0 lf 1011,7 hPa 0,0 l/m 0 min 0 min 0 W/m 12,6 km/h (3 Bft) 100,00 %
31.03.2017 20:40 16,9 C 16,7 C 14,4 C 68 % 0 lf 1011,6 hPa 0,0 l/m 0 min 0 min 0 W/m 12,6 km/h (3 Bft) 95,65 %
31.03.2017 20:42 16,9 C 16,7 C 14,4 C 68 % 0 lf 1011,7 hPa 0,0 l/m 0 min 0 min 0 W/m 14,6 km/h (3 Bft) 100,00 %
31.03.2017 20:44 16,9 C 16,7 C 14,4 C 69 % 0 lf 1011,6 hPa 0,0 l/m 0 min 0 min 0 W/m 10,5 km/h (2 Bft) 100,00 %
31.03.2017 20:46 16,9 C 16,7 C 14,4 C 69 % 1 lf 1011,6 hPa 0,0 l/m 0 min 2 min 0 W/m 12,6 km/h (3 Bft) 100,00 %
31.03.2017 20:48 16,8 C 16,1 C 14,4 C 69 % 0 lf 1011,7 hPa 0,0 l/m 0 min 0 min 0 W/m 12,6 km/h (3 Bft) 100,00 %
31.03.2017 20:50 16,8 C 16,1 C 14,4 C 69 % 0 lf 1011,7 hPa 0,0 l/m 0 min 2 min 0 W/m 12,6 km/h (3 Bft) 100,00 %
31.03.2017 20:52 16,8 C 16,1 C 13,9 C 69 % 15 lf 1011,8 hPa 0,0 l/m 0 min 2 min 0 W/m 14,6 km/h (3 Bft) 93,48 %
31.03.2017 20:54 16,8 C 15,6 C 13,9 C 70 % 14 lf 1011,8 hPa 0,0 l/m 0 min 2 min 0 W/m 14,6 km/h (3 Bft) 100,00 %
31.03.2017 20:56 16,7 C 15,6 C 13,3 C 70 % 13 lf 1011,8 hPa 0,0 l/m 0 min 2 min 0 W/m 12,6 km/h (3 Bft) 97,87 %
31.03.2017 20:58 16,7 C 15,6 C 13,9 C 70 % 11 lf 1011,8 hPa 0,0 l/m 0 min 2 min 0 W/m 10,5 km/h (2 Bft) 93,62 %
31.03.2017 21:00 16,7 C 15,6 C 13,9 C 71 % 4 lf 1011,8 hPa 0,0 l/m 0 min 0 min 0 W/m 16,7 km/h (3 Bft) 100,00 %
31.03.2017 21:02 16,6 C 15,6 C 13,9 C 71 % 1 lf 1011,8 hPa 0,0 l/m 0 min 0 min 0 W/m 12,6 km/h (3 Bft) 93,48 %
31.03.2017 21:04 16,6 C 15,6 C 13,9 C 71 % 0 lf 1011,9 hPa 0,0 l/m 0 min 0 min 0 W/m 8,4 km/h (2 Bft) 97,87 %
31.03.2017 21:06 16,6 C 15,6 C 13,9 C 71 % 0 lf 1011,9 hPa 0,0 l/m 0 min 0 min 0 W/m 6,3 km/h (2 Bft) 97,87 %
31.03.2017 21:08 16,6 C 16,1 C 13,9 C 71 % 0 lf 1011,9 hPa 0,0 l/m 0 min 0 min 0 W/m 10,5 km/h (2 Bft) 97,87 %
31.03.2017 21:10 16,5 C 15,6 C 13,9 C 71 % 0 lf 1011,9 hPa 0,0 l/m 0 min 0 min 0 W/m 8,4 km/h (2 Bft) 93,62 %
31.03.2017 21:12 16,5 C 15,6 C 13,9 C 71 % 0 lf 1012,0 hPa 0,0 l/m 0 min 0 min 0 W/m 14,6 km/h (3 Bft) 95,74 %
31.03.2017 21:14 16,4 C 15,6 C 13,9 C 71 % 3 lf 1011,9 hPa 0,0 l/m 0 min 0 min 0 W/m 10,5 km/h (2 Bft) 93,48 %
31.03.2017 21:16 16,4 C 15,6 C 13,9 C 71 % 0 lf 1011,9 hPa 0,0 l/m 0 min 0 min 0 W/m 12,6 km/h (3 Bft) 93,62 %
31.03.2017 21:18 16,4 C 15,6 C 13,9 C 71 % 0 lf 1011,9 hPa 0,0 l/m 0 min 0 min 0 W/m 12,6 km/h (3 Bft) 91,49 %
31.03.2017 21:20 16,4 C 15,6 C 13,9 C 71 % 0 lf 1012,0 hPa 0,0 l/m 0 min 0 min 0 W/m 12,6 km/h (3 Bft) 93,62 %
31.03.2017 21:22 16,3 C 16,1 C 13,9 C 71 % 0 lf 1012,0 hPa 0,0 l/m 0 min 0 min 0 W/m 10,5 km/h (2 Bft) 95,74 %
31.03.2017 21:24 16,3 C 16,1 C 13,9 C 72 % 0 lf 1011,9 hPa 0,0 l/m 0 min 0 min 0 W/m 12,6 km/h (3 Bft) 93,62 %
31.03.2017 21:26 16,3 C 16,1 C 13,9 C 71 % 1 lf 1011,9 hPa 0,0 l/m 0 min 0 min 0 W/m 10,5 km/h (2 Bft) 93,48 %
31.03.2017 21:28 16,2 C 16,1 C 13,9 C 71 % 1 lf 1011,9 hPa 0,0 l/m 0 min 2 min 0 W/m 12,6 km/h (3 Bft) 95,74 %
31.03.2017 21:30 16,2 C 16,1 C 13,9 C 71 % 1 lf 1012,0 hPa 0,0 l/m 0 min 2 min 0 W/m 14,6 km/h (3 Bft) 89,36 %
31.03.2017 21:32 16,2 C 16,1 C 13,9 C 71 % 1 lf 1012,0 hPa 0,0 l/m 0 min 0 min 0 W/m 12,6 km/h (3 Bft) 93,62 %
31.03.2017 21:34 16,2 C 16,1 C 13,9 C 72 % 0 lf 1012,0 hPa 0,0 l/m 0 min 0 min 0 W/m 12,6 km/h (3 Bft) 95,74 %
31.03.2017 21:36 16,2 C 16,1 C 13,9 C 72 % 0 lf 1012,0 hPa 0,0 l/m 0 min 0 min 0 W/m 16,7 km/h (3 Bft) 95,74 %
31.03.2017 21:38 16,2 C 16,1 C 13,9 C 72 % 0 lf 1012,0 hPa 0,0 l/m 0 min 0 min 0 W/m 14,6 km/h (3 Bft) 95,65 %
31.03.2017 21:40 16,1 C 16,1 C 13,9 C 72 % 2 lf 1012,0 hPa 0,0 l/m 0 min 0 min 0 W/m 14,6 km/h (3 Bft) 93,62 %
31.03.2017 21:42 16,1 C 16,1 C 13,9 C 72 % 4 lf 1012,0 hPa 0,0 l/m 0 min 0 min 0 W/m 12,6 km/h (3 Bft) 93,62 %
31.03.2017 21:44 16,1 C 15,6 C 13,9 C 72 % 4 lf 1012,0 hPa 0,0 l/m 0 min 2 min 0 W/m 10,5 km/h (2 Bft) 91,49 %
31.03.2017 21:46 16,1 C 15,6 C 13,9 C 72 % 4 lf 1012,0 hPa 0,0 l/m 0 min 2 min 0 W/m 16,7 km/h (3 Bft) 93,62 %
31.03.2017 21:48 16,1 C 15,6 C 13,3 C 72 % 2 lf 1012,0 hPa 0,0 l/m 0 min 2 min 0 W/m 14,6 km/h (3 Bft) 93,62 %
31.03.2017 21:50 16,1 C 15,6 C 13,9 C 72 % 0 lf 1011,9 hPa 0,0 l/m 0 min 2 min 0 W/m 12,6 km/h (3 Bft) 86,96 %
31.03.2017 21:52 16,1 C 15,6 C 13,9 C 72 % 0 lf 1012,0 hPa 0,0 l/m 0 min 0 min 0 W/m 12,6 km/h (3 Bft) 91,49 %
31.03.2017 21:54 16,1 C 15,6 C 13,9 C 72 % 0 lf 1012,0 hPa 0,0 l/m 0 min 0 min 0 W/m 10,5 km/h (2 Bft) 93,62 %
31.03.2017 21:56 16,0 C 15,6 C 13,9 C 72 % 1 lf 1011,9 hPa 0,0 l/m 0 min 0 min 0 W/m 12,6 km/h (3 Bft) 91,49 %
31.03.2017 21:58 16,0 C 15,6 C 13,9 C 72 % 0 lf 1011,9 hPa 0,0 l/m 0 min 0 min 0 W/m 8,4 km/h (2 Bft) 93,62 %
31.03.2017 22:00 16,0 C 15,6 C 13,9 C 72 % 0 lf 1011,9 hPa 0,0 l/m 0 min 0 min 0 W/m 10,5 km/h (2 Bft) 95,74 %
31.03.2017 22:02 15,9 C 15,6 C 13,9 C 72 % 0 lf 1011,9 hPa 0,0 l/m 0 min 0 min 0 W/m 12,6 km/h (3 Bft) 95,65 %
31.03.2017 22:04 15,9 C 15,6 C 13,9 C 72 % 2 lf 1012,0 hPa 0,0 l/m 0 min 0 min 0 W/m 12,6 km/h (3 Bft) 93,62 %
31.03.2017 22:06 15,9 C 15,6 C 13,9 C 72 % 2 lf 1012,0 hPa 0,0 l/m 0 min 2 min 0 W/m 12,6 km/h (3 Bft) 93,62 %
31.03.2017 22:08 15,9 C 15,6 C 13,3 C 72 % 3 lf 1012,0 hPa 0,0 l/m 0 min 2 min 0 W/m 10,5 km/h (2 Bft) 89,36 %
31.03.2017 22:10 15,9 C 15,6 C 13,3 C 71 % 3 lf 1012,0 hPa 0,0 l/m 0 min 2 min 0 W/m 10,5 km/h (2 Bft) 95,74 %
31.03.2017 22:12 15,9 C 15,6 C 13,3 C 72 % 0 lf 1012,0 hPa 0,0 l/m 0 min 2 min 0 W/m 10,5 km/h (2 Bft) 95,74 %
31.03.2017 22:14 15,9 C 15,6 C 13,3 C 72 % 0 lf 1012,0 hPa 0,0 l/m 0 min 0 min 0 W/m 12,6 km/h (3 Bft) 97,83 %
31.03.2017 22:16 15,9 C 15,6 C 13,3 C 72 % 1 lf 1012,0 hPa 0,0 l/m 0 min 0 min 0 W/m 10,5 km/h (2 Bft) 95,74 %
31.03.2017 22:18 15,9 C 15,6 C 13,3 C 72 % 0 lf 1012,0 hPa 0,0 l/m 0 min 0 min 0 W/m 12,6 km/h (3 Bft) 97,87 %
31.03.2017 22:20 15,9 C 15,6 C 13,9 C 72 % 0 lf 1012,0 hPa 0,0 l/m 0 min 0 min 0 W/m 10,5 km/h (2 Bft) 97,87 %
31.03.2017 22:22 15,8 C 15,6 C 13,9 C 72 % 0 lf 1012,0 hPa 0,0 l/m 0 min 0 min 0 W/m 10,5 km/h (2 Bft) 97,87 %
31.03.2017 22:24 15,8 C 15,6 C 13,3 C 72 % 0 lf 1012,0 hPa 0,0 l/m 0 min 0 min 0 W/m 8,4 km/h (2 Bft) 91,49 %
31.03.2017 22:26 15,8 C 15,6 C 13,9 C 72 % 0 lf 1012,0 hPa 0,0 l/m 0 min 0 min 0 W/m 14,6 km/h (3 Bft) 95,65 %
31.03.2017 22:28 15,8 C 15,6 C 13,3 C 72 % 0 lf 1012,0 hPa 0,0 l/m 0 min 0 min 0 W/m 10,5 km/h (2 Bft) 97,87 %
31.03.2017 22:30 15,8 C 15,6 C 13,3 C 72 % 0 lf 1012,0 hPa 0,0 l/m 0 min 0 min 0 W/m 6,3 km/h (2 Bft) 97,87 %
31.03.2017 22:32 15,8 C 15,6 C 13,3 C 71 % 0 lf 1012,0 hPa 0,0 l/m 0 min 0 min 0 W/m 8,4 km/h (2 Bft) 95,74 %
31.03.2017 22:34 15,8 C 15,6 C 13,3 C 71 % 0 lf 1012,0 hPa 0,0 l/m 0 min 0 min 0 W/m 6,3 km/h (2 Bft) 97,87 %
31.03.2017 22:36 15,8 C 15,6 C 13,3 C 71 % 0 lf 1011,9 hPa 0,0 l/m 0 min 0 min 0 W/m 4,2 km/h (1 Bft) 95,74 %
31.03.2017 22:38 15,8 C 15,6 C 13,3 C 71 % 0 lf 1011,9 hPa 0,0 l/m 0 min 0 min 0 W/m 4,2 km/h (1 Bft) 97,83 %
31.03.2017 22:40 15,8 C 15,6 C 13,3 C 71 % 0 lf 1011,9 hPa 0,0 l/m 0 min 0 min 0 W/m 6,3 km/h (2 Bft) 97,87 %
31.03.2017 22:42 15,8 C 15,6 C 13,3 C 71 % 0 lf 1011,9 hPa 0,0 l/m 0 min 0 min 0 W/m 6,3 km/h (2 Bft) 97,87 %
31.03.2017 22:44 15,8 C 15,6 C 13,3 C 71 % 0 lf 1011,9 hPa 0,0 l/m 0 min 0 min 0 W/m 4,2 km/h (1 Bft) 97,87 %
31.03.2017 22:46 15,7 C 15,6 C 13,3 C 71 % 0 lf 1012,0 hPa 0,0 l/m 0 min 0 min 0 W/m 6,3 km/h (2 Bft) 97,87 %
31.03.2017 22:48 15,7 C 15,6 C 13,3 C 71 % 0 lf 1012,0 hPa 0,0 l/m 0 min 0 min 0 W/m 6,3 km/h (2 Bft) 93,48 %
31.03.2017 22:50 15,7 C 15,6 C 13,3 C 71 % 0 lf 1012,0 hPa 0,0 l/m 0 min 0 min 0 W/m 4,2 km/h (1 Bft) 100,00 %
31.03.2017 22:52 15,7 C 15,6 C 12,8 C 71 % 0 lf 1012,0 hPa 0,0 l/m 0 min 0 min 0 W/m 4,2 km/h (1 Bft) 100,00 %
31.03.2017 22:54 15,7 C 15,6 C 12,8 C 71 % 0 lf 1012,0 hPa 0,0 l/m 0 min 0 min 0 W/m 6,3 km/h (2 Bft) 95,74 %
31.03.2017 22:56 15,7 C 15,6 C 12,8 C 71 % 0 lf 1012,0 hPa 0,0 l/m 0 min 0 min 0 W/m 6,3 km/h (2 Bft) 95,74 %
31.03.2017 22:58 15,7 C 15,6 C 12,8 C 71 % 0 lf 1012,0 hPa 0,0 l/m 0 min 0 min 0 W/m 8,4 km/h (2 Bft) 97,87 %
31.03.2017 23:00 15,7 C 15,6 C 12,8 C 71 % 0 lf 1012,0 hPa 0,0 l/m 0 min 0 min 0 W/m 6,3 km/h (2 Bft) 97,83 %
31.03.2017 23:02 15,7 C 15,6 C 12,8 C 71 % 0 lf 1012,0 hPa 0,0 l/m 0 min 0 min 0 W/m 8,4 km/h (2 Bft) 95,74 %
31.03.2017 23:04 15,7 C 15,6 C 12,8 C 71 % 0 lf 1012,0 hPa 0,0 l/m 0 min 0 min 0 W/m 6,3 km/h (2 Bft) 97,87 %
31.03.2017 23:06 15,7 C 15,6 C 12,8 C 71 % 0 lf 1012,0 hPa 0,0 l/m 0 min 0 min 0 W/m 4,2 km/h (1 Bft) 95,74 %
31.03.2017 23:08 15,7 C 15,6 C 12,8 C 71 % 0 lf 1012,0 hPa 0,0 l/m 0 min 0 min 0 W/m 8,4 km/h (2 Bft) 97,87 %
31.03.2017 23:10 15,7 C 15,6 C 13,3 C 71 % 0 lf 1012,0 hPa 0,0 l/m 0 min 0 min 0 W/m 8,4 km/h (2 Bft) 97,87 %
31.03.2017 23:12 15,6 C 15,6 C 13,3 C 71 % 0 lf 1012,0 hPa 0,0 l/m 0 min 0 min 0 W/m 8,4 km/h (2 Bft) 97,83 %
31.03.2017 23:14 15,6 C 15,6 C 13,3 C 71 % 0 lf 1012,0 hPa 0,0 l/m 0 min 0 min 0 W/m 4,2 km/h (1 Bft) 95,74 %
31.03.2017 23:16 15,6 C 15,6 C 13,3 C 71 % 0 lf 1012,0 hPa 0,0 l/m 0 min 0 min 0 W/m 6,3 km/h (2 Bft) 95,74 %
31.03.2017 23:18 15,6 C 15,6 C 13,3 C 71 % 0 lf 1012,0 hPa 0,0 l/m 0 min 0 min 0 W/m 6,3 km/h (2 Bft) 95,74 %
31.03.2017 23:20 15,6 C 15,6 C 13,3 C 71 % 0 lf 1012,0 hPa 0,0 l/m 0 min 0 min 0 W/m 6,3 km/h (2 Bft) 97,87 %
31.03.2017 23:22 15,6 C 15,6 C 13,3 C 72 % 0 lf 1012,0 hPa 0,0 l/m 0 min 0 min 0 W/m 10,5 km/h (2 Bft) 95,74 %
31.03.2017 23:24 15,6 C 15,6 C 13,3 C 72 % 0 lf 1012,0 hPa 0,0 l/m 0 min 0 min 0 W/m 8,4 km/h (2 Bft) 95,65 %
31.03.2017 23:26 15,6 C 15,6 C 13,3 C 72 % 0 lf 1012,0 hPa 0,0 l/m 0 min 0 min 0 W/m 4,2 km/h (1 Bft) 95,74 %
31.03.2017 23:28 15,6 C 15,6 C 13,3 C 72 % 0 lf 1012,0 hPa 0,0 l/m 0 min 0 min 0 W/m 4,2 km/h (1 Bft) 95,74 %
31.03.2017 23:30 15,6 C 15,6 C 12,8 C 72 % 0 lf 1012,0 hPa 0,0 l/m 0 min 0 min 0 W/m 8,4 km/h (2 Bft) 100,00 %
31.03.2017 23:32 15,5 C 15,6 C 13,3 C 72 % 0 lf 1012,1 hPa 0,0 l/m 0 min 0 min 0 W/m 6,3 km/h (2 Bft) 100,00 %
31.03.2017 23:34 15,5 C 15,6 C 13,3 C 72 % 0 lf 1012,1 hPa 0,0 l/m 0 min 0 min 0 W/m 6,3 km/h (2 Bft) 97,87 %
31.03.2017 23:36 15,5 C 15,6 C 13,3 C 72 % 0 lf 1012,1 hPa 0,0 l/m 0 min 0 min 0 W/m 6,3 km/h (2 Bft) 97,83 %
31.03.2017 23:38 15,5 C 15,6 C 12,8 C 72 % 0 lf 1012,1 hPa 0,0 l/m 0 min 0 min 0 W/m 6,3 km/h (2 Bft) 97,87 %
31.03.2017 23:40 15,5 C 15,6 C 12,8 C 72 % 0 lf 1012,0 hPa 0,0 l/m 0 min 0 min 0 W/m 6,3 km/h (2 Bft) 100,00 %
31.03.2017 23:42 15,4 C 15,6 C 12,8 C 72 % 0 lf 1012,0 hPa 0,0 l/m 0 min 0 min 0 W/m 4,2 km/h (1 Bft) 95,74 %
31.03.2017 23:44 15,5 C 15,6 C 12,8 C 72 % 0 lf 1012,0 hPa 0,0 l/m 0 min 0 min 0 W/m 4,2 km/h (1 Bft) 100,00 %
31.03.2017 23:46 15,4 C 15,6 C 12,8 C 72 % 0 lf 1012,0 hPa 0,0 l/m 0 min 0 min 0 W/m 6,3 km/h (2 Bft) 100,00 %
31.03.2017 23:48 15,4 C 15,0 C 12,8 C 72 % 0 lf 1012,0 hPa 0,0 l/m 0 min 0 min 0 W/m 4,2 km/h (1 Bft) 95,74 %
31.03.2017 23:50 15,4 C 15,0 C 12,8 C 72 % 0 lf 1012,1 hPa 0,0 l/m 0 min 0 min 0 W/m 4,2 km/h (1 Bft) 100,00 %
31.03.2017 23:52 15,4 C 15,0 C 12,2 C 72 % 0 lf 1012,0 hPa 0,0 l/m 0 min 0 min 0 W/m 4,2 km/h (1 Bft) 100,00 %
31.03.2017 23:54 15,4 C 15,0 C 12,2 C 72 % 0 lf 1012,0 hPa 0,0 l/m 0 min 0 min 0 W/m 6,3 km/h (2 Bft) 95,74 %
31.03.2017 23:56 15,4 C 15,0 C 12,8 C 72 % 0 lf 1012,0 hPa 0,0 l/m 0 min 0 min 0 W/m 6,3 km/h (2 Bft) 95,74 %
31.03.2017 23:58 15,4 C 15,0 C 12,8 C 72 % 0 lf 1012,0 hPa 0,0 l/m 0 min 0 min 0 W/m 6,3 km/h (2 Bft) 97,83 %
_ Min-Zeit 07:30 05:18 01:46 15:46 00:00 16:30 - - - - 01:00 15:02
Minimum _ 11,4 C 11,7 C 8,9 C 43 % 0 lf 1010,4 hPa - - - - 4,2 km/h (1 Bft) 84,78 %
_ Max-Zeit 14:06 13:30 15:16 07:50 20:52 00:00 00:00 08:38 20:46 13:50 14:16 02:10
Maximum _ 24,4 C 31,7 C 26,7 C 83 % 15 lf 1019,0 hPa 0,0 l/m 2 min 2 min 733 W/m 35,6 km/h
SW (5 Bft)
100,00 %
Durchschnitt _ 16,9 C 18,5 C 15,6 C 67 % 0 lf 1013,3 hPa #0,0 l/m #8:34 h #32 min. 244 W/m 16,3 km/h (3 Bft) 96,20 %
© 2017 W. Hausmann